M I D A S
Marine Information and Data Acquisition System
Tripno 812 of the Zeeleeuw from 2004-11-24 07:45:28 to 2004-11-24 14:29:23
Back to CruiseResearch ActivitiesStationsMapUnderway DataData graphs

EquipmentUnitsComment
TimeDGPSUTC
LatitudeDGPSDM.mWGS84
LongitudeDGPSDM.mWGS84
TemperatureSBE03/SBE38deg celciusITS90
ConductivitySBE21S/mITS90
SalinitySBE21 Practical Salinity Units
ChlorophylAChelsea fluorimeterg/lCalibrated in Aceton
Missing or incorrect values are displayed as -999
Sea surface data collected by the RV Zeeleeuw from 2004-11-24 07:38:26 to 2004-11-24 14:40:34
                                                                                    Next 1000 lines
Time Latitude Longitude Temperature Conductivity Salinity ChlorophylA
2004-11-24 07:38:36 51°13.617 2°56.057 15.627455 0.070437 0.414774 -0.916087
2004-11-24 07:38:42 51°13.618 2°56.053 15.678526 0.070437 0.414781 -0.916087
2004-11-24 07:38:47 51°13.619 2°56.049 15.61397 0.070437 0.414781 -0.882377
2004-11-24 07:38:52 51°13.62 2°56.044 15.61509 0.070437 0.414781 -0.882377
2004-11-24 07:38:56 51°13.621 2°56.041 15.620363 0.070437 0.414781 -0.882377
2004-11-24 07:39:02 51°13.623 2°56.034 15.620363 0.070437 0.414781 -0.882377
2004-11-24 07:39:08 51°13.624 2°56.028 15.626709 0.070437 0.414781 -0.882377
2004-11-24 07:39:12 51°13.625 2°56.023 15.640332 0.070437 0.414781 -0.916087
2004-11-24 07:39:16 51°13.626 2°56.018 15.625729 0.070437 0.414781 -0.916087
2004-11-24 07:39:21 51°13.628 2°56.012 15.661087 0.070437 0.414774 -0.916087
2004-11-24 07:39:26 51°13.629 2°56.006 15.699643 0.070437 0.414781 -0.848668
2004-11-24 07:39:33 51°13.63 2°55.999 15.699643 0.070437 0.414781 -0.848668
2004-11-24 07:39:36 51°13.631 2°55.997 15.786702 0.070437 0.414781 -0.882377
2004-11-24 07:39:41 51°13.631 2°55.995 15.879324 0.070437 0.414781 -0.882377
2004-11-24 07:39:46 51°13.631 2°55.994 15.747821 0.070437 0.414781 -0.882377
2004-11-24 07:39:53 51°13.631 2°55.992 15.643131 0.070437 0.414774 -0.916087
2004-11-24 07:39:58 51°13.631 2°55.99 15.61509 0.070437 0.414774 -0.882377
2004-11-24 07:40:00 51°13.632 2°55.988 15.61509 0.070437 0.414774 -0.882377
2004-11-24 07:40:04 51°13.632 2°55.986 15.637393 0.070437 0.414781 -0.882377
2004-11-24 07:40:12 51°13.633 2°55.98 15.642757 0.070437 0.414789 -0.882377
2004-11-24 07:40:24 51°13.635 2°55.969 15.653299 0.070437 0.414796 -0.916087
2004-11-24 07:40:34 51°13.638 2°55.959 15.650827 0.070437 0.414796 -0.882377
2004-11-24 07:40:38 51°13.64 2°55.955 15.673351 0.070437 0.414796 -0.882377
2004-11-24 07:40:45 51°13.642 2°55.947 15.673351 0.070437 0.414796 -0.882377
2004-11-24 07:40:48 51°13.643 2°55.943 15.723363 0.070437 0.414796 -0.882377
2004-11-24 07:40:52 51°13.645 2°55.938 15.707101 0.070437 0.414804 -0.916087
2004-11-24 07:40:59 51°13.648 2°55.929 15.697732 0.070437 0.414796 -0.916087
2004-11-24 07:41:05 51°13.651 2°55.92 15.691813 0.070437 0.414796 -0.916087
2004-11-24 07:41:10 51°13.654 2°55.912 15.680578 0.070437 0.414804 -0.848668
2004-11-24 07:41:12 51°13.655 2°55.909 15.680578 0.070437 0.414804 -0.848668
2004-11-24 07:41:20 51°13.661 2°55.896 15.699084 0.070437 0.414804 -0.882377
2004-11-24 07:41:25 51°13.664 2°55.887 15.691719 0.070437 0.414804 -0.882377
2004-11-24 07:41:30 51°13.667 2°55.879 15.718098 0.070437 0.414804 -0.916087
2004-11-24 07:41:35 51°13.67 2°55.871 15.723457 0.070437 0.414804 -0.882377
2004-11-24 07:41:40 51°13.673 2°55.863 15.70491 0.070437 0.414804 -0.882377
2004-11-24 07:41:44 51°13.675 2°55.856 15.70491 0.070437 0.414804 -0.882377
2004-11-24 07:41:49 51°13.678 2°55.848 15.710549 0.070437 0.414804 -0.882377
2004-11-24 07:41:55 51°13.681 2°55.838 15.710409 0.070437 0.414796 -0.882377
2004-11-24 07:42:00 51°13.684 2°55.83 15.711761 0.070437 0.414796 -0.916087
2004-11-24 07:42:04 51°13.686 2°55.823 15.709804 0.070437 0.414796 -0.882377
2004-11-24 07:42:09 51°13.688 2°55.815 15.705796 0.070437 0.414796 -0.882377
2004-11-24 07:42:14 51°13.69 2°55.806 15.705796 0.070437 0.414796 -0.882377
2004-11-24 07:42:19 51°13.692 2°55.797 15.706914 0.070437 0.414796 -0.882377
2004-11-24 07:42:25 51°13.694 2°55.786 15.704584 0.070437 0.414804 -0.916087
2004-11-24 07:42:30 51°13.696 2°55.778 15.723037 0.070437 0.414804 -0.916087
2004-11-24 07:42:33 51°13.697 2°55.772 15.698478 0.070437 0.414796 -0.916087
2004-11-24 07:42:40 51°13.699 2°55.762 15.72355 0.070437 0.414796 -0.916087
2004-11-24 07:42:44 51°13.699 2°55.758 15.72355 0.070437 0.414796 -0.916087
2004-11-24 07:42:49 51°13.7 2°55.755 15.767194 0.070437 0.414789 -0.882377
2004-11-24 07:42:52 51°13.701 2°55.754 15.920038 0.070437 0.414789 -0.848668
2004-11-24 07:42:58 51°13.701 2°55.754 15.874954 0.070437 0.414789 -0.882377
2004-11-24 07:43:04 51°13.702 2°55.756 15.779952 0.070437 0.414789 -0.916087
2004-11-24 07:43:09 51°13.702 2°55.758 15.739669 0.070437 0.414804 -0.882377
2004-11-24 07:43:23 51°13.703 2°55.76 15.708499 0.070437 0.414826 -0.882377
2004-11-24 07:43:26 51°13.703 2°55.759 15.660621 0.070437 0.414833 -0.916087
2004-11-24 07:43:32 51°13.702 2°55.757 15.736967 0.070437 0.414826 -0.916087
2004-11-24 07:43:41 51°13.7 2°55.752 15.725507 0.070437 0.414818 -0.882377
2004-11-24 07:43:44 51°13.7 2°55.75 15.761094 0.070437 0.414811 -0.882377
2004-11-24 07:43:50 51°13.699 2°55.748 15.901775 0.070437 0.414804 -0.882377
2004-11-24 07:43:58 51°13.7 2°55.748 15.753223 0.070437 0.414789 -0.882377
2004-11-24 07:44:02 51°13.701 2°55.748 15.753223 0.070437 0.414789 -0.882377
2004-11-24 07:44:08 51°13.703 2°55.749 15.828585 0.070437 0.414781 -0.882377
2004-11-24 07:44:12 51°13.704 2°55.751 15.868026 0.070437 0.414781 -0.882377
2004-11-24 07:44:16 51°13.706 2°55.752 15.850262 0.070437 0.414789 -0.882377
2004-11-24 07:44:20 51°13.708 2°55.753 15.881788 0.070437 0.414804 -0.882377
2004-11-24 07:44:30 51°13.713 2°55.756 15.734359 0.070437 0.414818 -0.882377
2004-11-24 07:44:34 51°13.715 2°55.756 15.678247 0.070437 0.414818 -0.882377
2004-11-24 07:44:40 51°13.716 2°55.757 15.691113 0.070437 0.414833 -0.916087
2004-11-24 07:44:52 51°13.716 2°55.757 15.657589 0.070437 0.414826 -0.882377
2004-11-24 07:44:58 51°13.716 2°55.757 15.769289 0.070437 0.414811 -0.916087
2004-11-24 07:45:02 51°13.717 2°55.757 15.923522 0.070437 0.414789 -0.916087
2004-11-24 07:45:08 51°13.719 2°55.755 15.923522 0.070437 0.414789 -0.916087
2004-11-24 07:45:11 51°13.721 2°55.754 15.84803 0.070437 0.414789 -0.882377
2004-11-24 07:45:16 51°13.724 2°55.752 15.903448 0.070437 0.414804 -0.882377
2004-11-24 07:45:24 51°13.728 2°55.747 15.851192 0.070437 0.414804 -0.882377
2004-11-24 07:45:28 51°13.731 2°55.743 15.910187 0.070437 0.414804 -0.882377
2004-11-24 07:45:33 51°13.735 2°55.738 15.834819 0.070437 0.414804 -0.882377
2004-11-24 07:45:38 51°13.74 2°55.731 15.834819 0.070437 0.414804 -0.882377
2004-11-24 07:45:42 51°13.744 2°55.726 15.784002 0.070437 0.414796 -0.916087
2004-11-24 07:45:47 51°13.75 2°55.718 15.768265 0.070437 0.414781 -0.882377
2004-11-24 07:45:52 51°13.756 2°55.71 15.734312 0.070437 0.414781 -0.916087
2004-11-24 07:45:58 51°13.764 2°55.699 15.683748 0.070437 0.414781 -0.882377
2004-11-24 07:46:00 51°13.767 2°55.696 15.702813 0.070437 0.414781 -0.882377
2004-11-24 07:46:08 51°13.779 2°55.682 15.702813 0.070437 0.414781 -0.882377
2004-11-24 07:46:12 51°13.786 2°55.674 15.593948 0.070437 0.414781 -0.882377
2004-11-24 07:46:16 51°13.793 2°55.667 15.625356 0.070437 0.414789 -0.882377
2004-11-24 07:46:22 51°13.804 2°55.656 15.689668 0.070437 0.414804 -0.916087
2004-11-24 07:46:28 51°13.816 2°55.644 15.757182 0.070437 0.414811 -0.882377
2004-11-24 07:46:32 51°13.824 2°55.637 15.570978 0.070437 0.414811 -0.882377
2004-11-24 07:46:38 51°13.837 2°55.626 15.570978 0.070437 0.414811 -0.882377
2004-11-24 07:46:43 51°13.848 2°55.618 15.587926 0.070437 0.414811 -0.882377
2004-11-24 07:46:48 51°13.858 2°55.61 15.737853 0.070437 0.414818 -0.882377
2004-11-24 07:46:52 51°13.867 2°55.603 15.710316 0.070437 0.414833 -0.882377
2004-11-24 07:46:58 51°13.881 2°55.593 15.659502 0.070437 0.414833 -0.882377
2004-11-24 07:47:03 51°13.892 2°55.584 15.682676 0.070437 0.414833 -0.882377
2004-11-24 07:47:08 51°13.904 2°55.576 15.682676 0.070437 0.414833 -0.882377
2004-11-24 07:47:14 51°13.917 2°55.566 15.711435 0.070437 0.414833 -0.882377
2004-11-24 07:47:16 51°13.922 2°55.563 15.64537 0.070437 0.414833 -0.882377
2004-11-24 07:47:23 51°13.939 2°55.552 15.657216 0.070437 0.414826 -0.916087
2004-11-24 07:47:28 51°13.951 2°55.544 15.701974 0.070437 0.414826 -0.882377
2004-11-24 07:47:32 51°13.96 2°55.537 15.673351 0.070437 0.414826 -0.882377
2004-11-24 07:47:42 51°13.984 2°55.521 15.611264 0.070437 0.414811 -0.916087
2004-11-24 07:47:44 51°13.989 2°55.518 15.657123 0.070437 0.414818 -0.882377
2004-11-24 07:47:52 51°14.01 2°55.503 15.678993 0.070437 0.414826 -0.916087
2004-11-24 07:47:56 51°14.02 2°55.496 15.644297 0.070437 0.414826 -0.882377
2004-11-24 07:48:02 51°14.034 2°55.487 15.644297 0.070437 0.414826 -0.882377
2004-11-24 07:48:06 51°14.044 2°55.481 15.756996 0.070437 0.414826 -0.882377
2004-11-24 07:48:12 51°14.058 2°55.47 15.745259 0.070437 0.41484 -0.882377
2004-11-24 07:48:17 51°14.071 2°55.462 15.613224 0.070437 0.414826 -0.916087
2004-11-24 07:48:20 51°14.078 2°55.457 15.686778 0.070437 0.414826 -0.882377
2004-11-24 07:48:24 51°14.089 2°55.449 15.681697 0.070437 0.414826 -0.916087
2004-11-24 07:48:36 51°14.119 2°55.426 15.671766 0.070437 0.414811 -0.882377
2004-11-24 07:48:40 51°14.13 2°55.418 15.751034 0.070437 0.414811 -0.916087
2004-11-24 07:48:45 51°14.143 2°55.408 15.732588 0.070437 0.414818 -0.882377
2004-11-24 07:48:49 51°14.153 2°55.399 15.732588 0.070437 0.414818 -0.882377
2004-11-24 07:48:56 51°14.17 2°55.382 15.676288 0.070437 0.414818 -0.916087
2004-11-24 07:49:00 51°14.18 2°55.373 15.72765 0.070437 0.414818 -0.916087
2004-11-24 07:49:05 51°14.193 2°55.36 15.807088 0.070437 0.414826 -0.882377
2004-11-24 07:49:10 51°14.205 2°55.347 15.796058 0.070437 0.414826 -0.882377
2004-11-24 07:49:15 51°14.217 2°55.332 15.804808 0.070437 0.41484 -0.916087
2004-11-24 07:49:20 51°14.229 2°55.318 15.804808 0.070437 0.41484 -0.916087
2004-11-24 07:49:24 51°14.238 2°55.305 15.806763 0.070437 0.41484 -0.882377
2004-11-24 07:49:28 51°14.246 2°55.292 15.794987 0.070437 0.41484 -0.882377
2004-11-24 07:49:35 51°14.261 2°55.269 15.800433 0.070437 0.414833 -0.916087
2004-11-24 07:49:39 51°14.269 2°55.254 15.790426 0.070437 0.414833 -0.916087
2004-11-24 07:49:44 51°14.279 2°55.236 15.694283 0.070437 0.414826 -0.882377
2004-11-24 07:49:49 51°14.289 2°55.217 15.694283 0.070437 0.414826 -0.882377
2004-11-24 07:49:52 51°14.295 2°55.206 15.612104 0.070437 0.414818 -0.882377
2004-11-24 07:49:59 51°14.309 2°55.179 15.619477 0.070437 0.414811 -0.882377
2004-11-24 07:50:04 51°14.319 2°55.159 15.80397 0.070437 0.414811 -0.882377
2004-11-24 07:50:07 51°14.325 2°55.147 15.894757 0.070437 0.414826 -0.916087
2004-11-24 07:50:14 51°14.338 2°55.117 15.695495 0.070437 0.414833 -0.882377
2004-11-24 07:50:20 51°14.348 2°55.09 15.695495 0.070437 0.414833 -0.882377
2004-11-24 07:50:24 51°14.355 2°55.071 15.635433 0.070437 0.414826 -0.882377
2004-11-24 07:50:30 51°14.364 2°55.043 15.639259 0.070437 0.414826 -0.882377
2004-11-24 07:50:32 51°14.368 2°55.034 15.657216 0.070437 0.414826 -0.882377
2004-11-24 07:50:44 51°14.388 2°54.974 15.701508 0.070437 0.414826 -0.882377
2004-11-24 07:50:50 51°14.397 2°54.943 15.701508 0.070437 0.414826 -0.882377
2004-11-24 07:51:01 51°14.413 2°54.884 15.800805 0.070437 0.414818 -0.916087
2004-11-24 07:51:05 51°14.417 2°54.86 15.706029 0.070437 0.414826 -0.882377
2004-11-24 07:51:14 51°14.429 2°54.81 15.834354 0.070437 0.414818 -0.848668
2004-11-24 07:51:20 51°14.438 2°54.777 15.834354 0.070437 0.414818 -0.848668
2004-11-24 07:51:22 51°14.442 2°54.766 15.659875 0.070437 0.414818 -0.882377
2004-11-24 07:51:42 51°14.477 2°54.66 15.768777 0.070437 0.414818 -0.882377
2004-11-24 07:51:47 51°14.486 2°54.633 15.725274 0.070437 0.414826 -0.882377
2004-11-24 07:51:52 51°14.495 2°54.606 15.622276 0.070437 0.414833 -0.882377
2004-11-24 07:51:57 51°14.505 2°54.58 15.674843 0.070437 0.414826 -0.916087
2004-11-24 07:52:02 51°14.515 2°54.554 15.623396 0.070437 0.414833 -0.882377
2004-11-24 07:52:08 51°14.529 2°54.525 15.623396 0.070437 0.414833 -0.882377
2004-11-24 07:52:12 51°14.538 2°54.505 15.633241 0.070437 0.414818 -0.882377
2004-11-24 07:52:18 51°14.552 2°54.477 15.627969 0.070437 0.414833 -0.916087
2004-11-24 07:52:22 51°14.563 2°54.46 15.568083 0.070437 0.414818 -0.882377
2004-11-24 07:52:28 51°14.58 2°54.435 15.680112 0.070437 0.414826 -0.882377
2004-11-24 07:52:32 51°14.591 2°54.42 15.686079 0.070437 0.414826 -0.882377
2004-11-24 07:52:36 51°14.603 2°54.405 15.686079 0.070437 0.414826 -0.882377
2004-11-24 07:52:50 51°14.645 2°54.354 15.697919 0.070437 0.41484 -0.882377
2004-11-24 07:52:56 51°14.663 2°54.333 15.723317 0.070437 0.414848 -0.882377
2004-11-24 07:53:00 51°14.675 2°54.319 15.614437 0.070437 0.414848 -0.882377
2004-11-24 07:53:05 51°14.691 2°54.301 15.764354 0.070437 0.414848 -0.882377
2004-11-24 07:53:10 51°14.706 2°54.284 15.638979 0.070437 0.414848 -0.916087
2004-11-24 07:53:14 51°14.719 2°54.27 15.609023 0.070437 0.41484 -0.882377
2004-11-24 07:53:30 51°14.769 2°54.219 15.725087 0.070437 0.414826 -0.916087
2004-11-24 07:53:32 51°14.775 2°54.213 15.578215 0.070437 0.414833 -0.882377
2004-11-24 07:53:40 51°14.802 2°54.19 15.659175 0.070437 0.414833 -0.916087
2004-11-24 07:53:46 51°14.822 2°54.173 15.701648 0.070437 0.41484 -0.882377
2004-11-24 07:53:52 51°14.841 2°54.157 15.792288 0.070437 0.414855 -0.882377
2004-11-24 07:53:56 51°14.855 2°54.147 15.647282 0.070437 0.414848 -0.882377
2004-11-24 07:54:00 51°14.868 2°54.136 15.647282 0.070437 0.414848 -0.882377
2004-11-24 07:54:07 51°14.891 2°54.118 15.68827 0.070437 0.414848 -0.882377
2004-11-24 07:54:12 51°14.908 2°54.105 15.668129 0.070437 0.414848 -0.916087
2004-11-24 07:54:17 51°14.924 2°54.092 15.715675 0.070437 0.41484 -0.882377
2004-11-24 07:54:20 51°14.934 2°54.084 15.715302 0.070437 0.414863 -0.882377
2004-11-24 07:54:24 51°14.947 2°54.073 15.797035 0.070437 0.414848 -0.916087
2004-11-24 07:54:32 51°14.973 2°54.051 15.797035 0.070437 0.414848 -0.916087
2004-11-24 07:54:37 51°14.99 2°54.037 15.699643 0.070437 0.414863 -0.916087
2004-11-24 07:54:42 51°15.006 2°54.024 15.635153 0.070437 0.414848 -0.882377
2004-11-24 07:54:47 51°15.023 2°54.01 15.711901 0.070437 0.41484 -0.882377
2004-11-24 07:54:50 51°15.033 2°54.002 15.662626 0.070437 0.41484 -0.882377
2004-11-24 07:54:57 51°15.056 2°53.983 15.64369 0.070437 0.41484 -0.916087
2004-11-24 07:55:02 51°15.073 2°53.969 15.64369 0.070437 0.41484 -0.916087
2004-11-24 07:55:06 51°15.087 2°53.959 15.622883 0.070437 0.41484 -0.882377
2004-11-24 07:55:12 51°15.107 2°53.943 15.716933 0.070437 0.414855 -0.882377
2004-11-24 07:55:21 51°15.137 2°53.918 15.74293 0.070437 0.414855 -0.848668
2004-11-24 07:55:27 51°15.158 2°53.902 15.627316 0.070437 0.414848 -0.882377
2004-11-24 07:55:32 51°15.175 2°53.887 15.627316 0.070437 0.414848 -0.882377
2004-11-24 07:55:37 51°15.191 2°53.874 15.729653 0.070437 0.414848 -0.916087
2004-11-24 07:55:40 51°15.201 2°53.865 15.636693 0.070437 0.414863 -0.882377
2004-11-24 07:55:56 51°15.255 2°53.819 15.745632 0.070437 0.414855 -0.916087
2004-11-24 07:56:02 51°15.276 2°53.802 15.692605 0.070437 0.414855 -0.882377
2004-11-24 07:56:08 51°15.296 2°53.785 15.692605 0.070437 0.414855 -0.882377
2004-11-24 07:56:12 51°15.31 2°53.773 15.64467 0.070437 0.41484 -0.882377
2004-11-24 07:56:17 51°15.327 2°53.759 15.63604 0.070437 0.414855 -0.882377
2004-11-24 07:56:21 51°15.34 2°53.748 15.631981 0.070437 0.414848 -0.882377
2004-11-24 07:56:28 51°15.364 2°53.729 15.631515 0.070437 0.414863 -0.882377
2004-11-24 07:56:33 51°15.381 2°53.715 15.749544 0.070437 0.414848 -0.882377
2004-11-24 07:56:38 51°15.398 2°53.701 15.749544 0.070437 0.414848 -0.882377
2004-11-24 07:56:42 51°15.412 2°53.689 15.724621 0.070437 0.41487 -0.882377
2004-11-24 07:56:48 51°15.432 2°53.672 15.652319 0.070437 0.414863 -0.882377
2004-11-24 07:56:52 51°15.446 2°53.66 15.640612 0.070437 0.414877 -0.882377
2004-11-24 07:56:56 51°15.459 2°53.649 15.683655 0.070437 0.41487 -0.916087
2004-11-24 07:57:03 51°15.483 2°53.628 15.677361 0.070437 0.41487 -0.882377
2004-11-24 07:57:16 51°15.528 2°53.591 15.642944 0.070437 0.414877 -0.848668
2004-11-24 07:57:19 51°15.537 2°53.583 15.642944 0.070437 0.414877 -0.848668
2004-11-24 07:57:24 51°15.555 2°53.568 15.663699 0.070437 0.414863 -0.882377
2004-11-24 07:57:28 51°15.568 2°53.557 15.676428 0.070437 0.41487 -0.916087
2004-11-24 07:57:35 51°15.592 2°53.536 15.757648 0.070437 0.414877 -0.882377
2004-11-24 07:57:40 51°15.609 2°53.521 15.658569 0.070437 0.41487 -0.848668
2004-11-24 07:57:45 51°15.625 2°53.507 15.764167 0.070437 0.414877 -0.882377
2004-11-24 07:57:48 51°15.636 2°53.498 15.764167 0.070437 0.414877 -0.882377
2004-11-24 07:57:55 51°15.659 2°53.478 15.636413 0.070437 0.414877 -0.916087
2004-11-24 07:58:00 51°15.676 2°53.464 15.709431 0.070437 0.41487 -0.882377
2004-11-24 07:58:04 51°15.69 2°53.453 15.66188 0.070437 0.414877 -0.916087
2004-11-24 07:58:10 51°15.711 2°53.436 15.66174 0.070437 0.414885 -0.882377
2004-11-24 07:58:15 51°15.728 2°53.422 15.705796 0.070437 0.414877 -0.882377
2004-11-24 07:58:28 51°15.772 2°53.386 15.678387 0.070437 0.414885 -0.882377
2004-11-24 07:58:44 51°15.826 2°53.34 15.667942 0.070437 0.414885 -0.916087
2004-11-24 07:58:50 51°15.846 2°53.322 15.70971 0.070437 0.414892 -0.916087
2004-11-24 07:58:56 51°15.866 2°53.304 15.70971 0.070437 0.414892 -0.916087
2004-11-24 07:59:01 51°15.883 2°53.29 15.72546 0.070437 0.414892 -0.916087
2004-11-24 07:59:04 51°15.893 2°53.281 15.665284 0.070437 0.414885 -0.882377
2004-11-24 07:59:08 51°15.907 2°53.27 15.687058 0.070437 0.414885 -0.882377
2004-11-24 07:59:26 51°15.966 2°53.215 15.680065 0.070437 0.414899 -0.882377
2004-11-24 07:59:32 51°15.986 2°53.198 15.707986 0.070437 0.414892 -0.882377
2004-11-24 07:59:36 51°16 2°53.187 15.647095 0.070437 0.414892 -0.882377
2004-11-24 07:59:40 51°16.014 2°53.176 15.666963 0.070437 0.414877 -0.882377
2004-11-24 07:59:46 51°16.034 2°53.16 15.724761 0.070437 0.414899 -0.882377
2004-11-24 07:59:49 51°16.044 2°53.152 15.663186 0.070437 0.414899 -0.916087
2004-11-24 07:59:56 51°16.068 2°53.134 15.663186 0.070437 0.414899 -0.916087
2004-11-24 08:00:01 51°16.085 2°53.121 15.660761 0.070437 0.414899 -0.882377
2004-11-24 08:00:05 51°16.099 2°53.111 15.666124 0.070437 0.414907 -0.882377
2004-11-24 08:00:11 51°16.119 2°53.095 15.695355 0.070437 0.414899 -0.882377
2004-11-24 08:00:16 51°16.136 2°53.082 15.692419 0.070437 0.414914 -0.916087
2004-11-24 08:00:20 51°16.15 2°53.071 15.654185 0.070437 0.414907 -0.882377
2004-11-24 08:00:26 51°16.171 2°53.055 15.654185 0.070437 0.414907 -0.882377
2004-11-24 08:00:31 51°16.188 2°53.042 15.700762 0.070437 0.414907 -0.882377
2004-11-24 08:00:36 51°16.205 2°53.029 15.667336 0.070437 0.414907 -0.882377
2004-11-24 08:00:41 51°16.222 2°53.016 15.668222 0.070437 0.414914 -0.882377
2004-11-24 08:00:46 51°16.239 2°53.003 15.730492 0.070437 0.414922 -0.882377
2004-11-24 08:00:52 51°16.259 2°52.987 15.70258 0.070437 0.414914 -0.882377
2004-11-24 08:00:56 51°16.273 2°52.977 15.70258 0.070437 0.414914 -0.882377
2004-11-24 08:00:59 51°16.283 2°52.969 15.680112 0.070437 0.414914 -0.916087
2004-11-24 08:01:06 51°16.307 2°52.951 15.676801 0.070437 0.414922 -0.882377
2004-11-24 08:01:10 51°16.321 2°52.941 15.736548 0.070437 0.414914 -0.916087
2004-11-24 08:01:16 51°16.341 2°52.925 15.695495 0.070437 0.414929 -0.882377
2004-11-24 08:01:21 51°16.358 2°52.912 15.660108 0.070437 0.414922 -0.882377
2004-11-24 08:01:26 51°16.375 2°52.899 15.660108 0.070437 0.414922 -0.882377
2004-11-24 08:01:31 51°16.392 2°52.887 15.753829 0.070437 0.414929 -0.882377
2004-11-24 08:01:36 51°16.409 2°52.874 15.680438 0.070437 0.414929 -0.882377
2004-11-24 08:01:41 51°16.426 2°52.861 15.739716 0.070437 0.414929 -0.882377
2004-11-24 08:01:46 51°16.443 2°52.848 15.679599 0.070437 0.414936 -0.882377
2004-11-24 08:01:48 51°16.45 2°52.842 15.664072 0.070437 0.414929 -0.882377
2004-11-24 08:02:01 51°16.494 2°52.807 15.697593 0.070437 0.414929 -0.882377
2004-11-24 08:02:07 51°16.514 2°52.791 15.692046 0.070437 0.414936 -0.882377
2004-11-24 08:02:12 51°16.53 2°52.777 15.726019 0.070437 0.414929 -0.916087
2004-11-24 08:02:17 51°16.547 2°52.764 15.75001 0.070437 0.414936 -0.882377
2004-11-24 08:02:22 51°16.564 2°52.751 15.668082 0.070437 0.414936 -0.882377
2004-11-24 08:02:26 51°16.578 2°52.741 15.690274 0.070437 0.414936 -0.916087
2004-11-24 08:02:32 51°16.598 2°52.725 15.690274 0.070437 0.414936 -0.916087
2004-11-24 08:02:36 51°16.612 2°52.715 15.725879 0.070437 0.414944 -0.882377
2004-11-24 08:02:42 51°16.632 2°52.7 15.679739 0.070437 0.414944 -0.916087
2004-11-24 08:02:45 51°16.642 2°52.692 15.698711 0.070437 0.414936 -0.916087
2004-11-24 08:02:52 51°16.666 2°52.674 15.756716 0.070437 0.414951 -0.916087
2004-11-24 08:02:57 51°16.683 2°52.661 15.673724 0.070437 0.414951 -0.882377
2004-11-24 08:03:01 51°16.696 2°52.652 15.673724 0.070437 0.414951 -0.882377
2004-11-24 08:03:07 51°16.716 2°52.637 15.664911 0.070437 0.414944 -0.882377
2004-11-24 08:03:21 51°16.763 2°52.602 15.695355 0.070437 0.414966 -0.848668
2004-11-24 08:03:26 51°16.78 2°52.59 15.689855 0.070437 0.414944 -0.916087
2004-11-24 08:03:31 51°16.796 2°52.577 15.689855 0.070437 0.414944 -0.916087
2004-11-24 08:03:36 51°16.813 2°52.564 15.776413 0.070437 0.414958 -0.882377
2004-11-24 08:03:40 51°16.827 2°52.554 15.680671 0.070437 0.414966 -0.916087
2004-11-24 08:03:46 51°16.846 2°52.539 15.757741 0.070437 0.414958 -0.916087
2004-11-24 08:03:52 51°16.867 2°52.523 15.693631 0.070437 0.414966 -0.882377
2004-11-24 08:03:56 51°16.88 2°52.512 15.690834 0.070437 0.414958 -0.882377
2004-11-24 08:04:02 51°16.9 2°52.496 15.690834 0.070437 0.414958 -0.882377
2004-11-24 08:04:14 51°16.94 2°52.464 15.70244 0.070437 0.414966 -0.916087
2004-11-24 08:04:19 51°16.956 2°52.451 15.699317 0.070437 0.414973 -0.882377
2004-11-24 08:04:22 51°16.966 2°52.443 15.683888 0.070437 0.414973 -0.882377
2004-11-24 08:04:39 51°17.022 2°52.401 15.757974 0.070437 0.414973 -0.882377
2004-11-24 08:04:44 51°17.039 2°52.388 15.757974 0.070437 0.414973 -0.882377
2004-11-24 08:04:49 51°17.055 2°52.375 15.707147 0.070437 0.414981 -0.882377
2004-11-24 08:04:52 51°17.066 2°52.368 15.696381 0.070437 0.414973 -0.882377
2004-11-24 08:04:59 51°17.089 2°52.349 15.742324 0.070437 0.414988 -0.916087
2004-11-24 08:05:04 51°17.106 2°52.336 15.69708 0.070437 0.414988 -0.916087
2004-11-24 08:05:09 51°17.122 2°52.323 15.69377 0.070437 0.414973 -0.916087
2004-11-24 08:05:23 51°17.17 2°52.289 15.701228 0.070437 0.414973 -0.882377
2004-11-24 08:05:28 51°17.187 2°52.278 15.689249 0.070437 0.414981 -0.916087
2004-11-24 08:05:33 51°17.205 2°52.266 15.726392 0.070437 0.414988 -0.916087
2004-11-24 08:05:36 51°17.215 2°52.26 15.726392 0.070437 0.414988 -0.916087
2004-11-24 08:05:43 51°17.24 2°52.244 15.700529 0.070437 0.414988 -0.916087
2004-11-24 08:05:47 51°17.254 2°52.235 15.736082 0.070437 0.414988 -0.916087
2004-11-24 08:05:53 51°17.274 2°52.222 15.777158 0.070437 0.414988 -0.882377
2004-11-24 08:05:56 51°17.285 2°52.215 15.744933 0.070437 0.414995 -0.916087
2004-11-24 08:06:03 51°17.309 2°52.199 15.706541 0.070437 0.41501 -0.882377
2004-11-24 08:06:08 51°17.326 2°52.188 15.706541 0.070437 0.41501 -0.882377
2004-11-24 08:06:24 51°17.382 2°52.16 15.749777 0.070437 0.414995 -0.848668
2004-11-24 08:06:34 51°17.418 2°52.145 15.738971 0.070437 0.414995 -0.882377
2004-11-24 08:06:52 51°17.483 2°52.128 15.701741 0.070437 0.41501 -0.916087
2004-11-24 08:06:56 51°17.498 2°52.125 15.701741 0.070437 0.41501 -0.916087
2004-11-24 08:07:01 51°17.516 2°52.122 15.763748 0.070437 0.415018 -0.848668
2004-11-24 08:07:04 51°17.527 2°52.12 15.732169 0.070437 0.415025 -0.882377
2004-11-24 08:07:09 51°17.545 2°52.117 15.735616 0.070437 0.415018 -0.882377
2004-11-24 08:07:15 51°17.567 2°52.113 15.741346 0.070437 0.415018 -0.916087
2004-11-24 08:07:19 51°17.582 2°52.11 15.724715 0.070437 0.415018 -0.916087
2004-11-24 08:07:26 51°17.607 2°52.108 15.724715 0.070437 0.415018 -0.916087
2004-11-24 08:07:30 51°17.622 2°52.108 15.746517 0.070437 0.415018 -0.882377
2004-11-24 08:07:36 51°17.643 2°52.108 15.748054 0.070437 0.415025 -0.882377
2004-11-24 08:07:40 51°17.658 2°52.11 15.715722 0.070437 0.41501 -0.916087
2004-11-24 08:07:46 51°17.679 2°52.113 15.753782 0.070333 0.414398 -0.848668
2004-11-24 08:07:52 51°17.701 2°52.117 15.781162 0.070437 0.415025 -0.882377
2004-11-24 08:07:56 51°17.715 2°52.119 15.781162 0.070437 0.415025 -0.882377
2004-11-24 08:08:00 51°17.73 2°52.122 15.771943 0.070437 0.415054 -0.882377
2004-11-24 08:08:06 51°17.751 2°52.126 15.744048 0.070437 0.415032 -0.916087
2004-11-24 08:08:12 51°17.773 2°52.13 15.74293 0.070437 0.415032 -0.916087
2004-11-24 08:08:16 51°17.788 2°52.133 15.766589 0.070437 0.41504 -0.882377
2004-11-24 08:08:20 51°17.802 2°52.135 15.732216 0.070437 0.415025 -0.916087
2004-11-24 08:08:26 51°17.824 2°52.139 15.732216 0.070437 0.415025 -0.916087
2004-11-24 08:08:31 51°17.842 2°52.143 15.765611 0.070437 0.415032 -0.882377
2004-11-24 08:08:36 51°17.86 2°52.146 15.781162 0.070437 0.415047 -0.882377
2004-11-24 08:08:39 51°17.871 2°52.148 15.730725 0.070437 0.41504 -0.882377
2004-11-24 08:08:58 51°17.94 2°52.16 15.813184 0.070437 0.415054 -0.916087
2004-11-24 08:09:03 51°17.958 2°52.164 15.725041 0.070437 0.415047 -0.882377
2004-11-24 08:09:08 51°17.976 2°52.167 15.725041 0.070437 0.415047 -0.882377
2004-11-24 08:09:12 51°17.991 2°52.169 15.774504 0.070437 0.415054 -0.882377
2004-11-24 08:09:18 51°18.013 2°52.173 15.757834 0.070437 0.41504 -0.882377
2004-11-24 08:09:24 51°18.035 2°52.177 15.727929 0.070437 0.415047 -0.882377
2004-11-24 08:09:28 51°18.049 2°52.179 15.796058 0.070333 0.414427 -0.882377
2004-11-24 08:09:42 51°18.1 2°52.193 15.721546 0.070437 0.415047 -0.916087
2004-11-24 08:09:46 51°18.114 2°52.198 15.715955 0.070437 0.41504 -0.916087
2004-11-24 08:09:52 51°18.136 2°52.206 15.788471 0.070437 0.415047 -0.882377
2004-11-24 08:09:56 51°18.15 2°52.211 15.74661 0.070437 0.415062 -0.882377
2004-11-24 08:10:01 51°18.168 2°52.219 15.74661 0.070437 0.415062 -0.882377
2004-11-24 08:10:06 51°18.186 2°52.226 15.791031 0.070437 0.415062 -0.882377
2004-11-24 08:10:12 51°18.207 2°52.235 15.752478 0.070437 0.415069 -0.882377
2004-11-24 08:10:17 51°18.225 2°52.243 15.807833 0.070437 0.415069 -0.916087
2004-11-24 08:10:20 51°18.235 2°52.248 15.764773 0.070437 0.415062 -0.882377
2004-11-24 08:10:26 51°18.257 2°52.257 15.766822 0.070333 0.414435 -0.882377
2004-11-24 08:10:32 51°18.278 2°52.268 15.766822 0.070333 0.414435 -0.882377
2004-11-24 08:10:37 51°18.295 2°52.277 15.766961 0.070437 0.415062 -0.916087
2004-11-24 08:10:42 51°18.312 2°52.286 15.767939 0.070437 0.415077 -0.916087
2004-11-24 08:10:47 51°18.329 2°52.296 15.747914 0.070437 0.415077 -0.882377
2004-11-24 08:10:49 51°18.336 2°52.3 15.755971 0.070437 0.415069 -0.882377
2004-11-24 08:10:57 51°18.363 2°52.317 15.810532 0.070437 0.415091 -0.882377
2004-11-24 08:11:02 51°18.381 2°52.327 15.810532 0.070437 0.415091 -0.882377
2004-11-24 08:11:06 51°18.394 2°52.335 15.755971 0.070437 0.415084 -0.882377
2004-11-24 08:11:10 51°18.408 2°52.343 15.75979 0.070437 0.415084 -0.916087
2004-11-24 08:11:17 51°18.432 2°52.358 15.756716 0.070437 0.415084 -0.882377
2004-11-24 08:11:22 51°18.448 2°52.368 15.810765 0.070437 0.415099 -0.882377
2004-11-24 08:11:26 51°18.462 2°52.379 15.73748 0.070437 0.415077 -0.882377
2004-11-24 08:11:32 51°18.481 2°52.394 15.73748 0.070437 0.415077 -0.882377
2004-11-24 08:11:36 51°18.494 2°52.405 15.751407 0.070437 0.415084 -0.882377
2004-11-24 08:11:39 51°18.504 2°52.414 15.794429 0.070437 0.415069 -0.848668
2004-11-24 08:11:54 51°18.551 2°52.459 15.784002 0.070333 0.414464 -0.882377
2004-11-24 08:11:58 51°18.563 2°52.472 15.781581 0.070437 0.415091 -0.882377
2004-11-24 08:12:04 51°18.581 2°52.492 15.767334 0.070333 0.414472 -0.848668
2004-11-24 08:12:38 51°18.658 2°52.644 15.741859 0.070437 0.415091 -0.848668
2004-11-24 08:12:42 51°18.665 2°52.665 15.80518 0.070333 0.414479 -0.882377
2004-11-24 08:12:48 51°18.673 2°52.697 15.779719 0.070437 0.415114 -0.882377
2004-11-24 08:12:53 51°18.68 2°52.724 15.793824 0.070333 0.414494 -0.882377
2004-11-24 08:12:58 51°18.686 2°52.751 15.826073 0.070437 0.415128 -0.882377
2004-11-24 08:13:04 51°18.693 2°52.785 15.795174 0.070437 0.415128 -0.882377
2004-11-24 08:13:08 51°18.698 2°52.807 15.795174 0.070437 0.415128 -0.882377
2004-11-24 08:13:22 51°18.714 2°52.884 15.830074 0.070437 0.415128 -0.882377
2004-11-24 08:13:26 51°18.719 2°52.907 15.798339 0.070333 0.414501 -0.882377
2004-11-24 08:13:32 51°18.726 2°52.94 15.798339 0.070333 0.414501 -0.882377
2004-11-24 08:13:37 51°18.733 2°52.967 15.837006 0.070333 0.414509 -0.882377
2004-11-24 08:13:40 51°18.736 2°52.983 15.790472 0.070437 0.415128 -0.882377
2004-11-24 08:13:44 51°18.741 2°53.005 15.823282 0.070333 0.414531 -0.882377
2004-11-24 08:13:51 51°18.75 2°53.044 15.812114 0.070437 0.415143 -0.882377
2004-11-24 08:13:57 51°18.758 2°53.077 15.798106 0.070333 0.414509 -0.882377
2004-11-24 08:14:02 51°18.764 2°53.104 15.798106 0.070333 0.414509 -0.882377
2004-11-24 08:14:06 51°18.769 2°53.126 15.798944 0.070333 0.414509 -0.916087
2004-11-24 08:14:11 51°18.775 2°53.153 15.806251 0.070437 0.415136 -0.882377
2004-11-24 08:14:17 51°18.783 2°53.186 15.796384 0.070333 0.414501 -0.848668
2004-11-24 08:14:22 51°18.79 2°53.213 15.804715 0.070333 0.414509 -0.882377
2004-11-24 08:14:26 51°18.795 2°53.235 15.793963 0.070437 0.415136 -0.916087
2004-11-24 08:14:32 51°18.803 2°53.267 15.793963 0.070437 0.415136 -0.916087
2004-11-24 08:14:36 51°18.808 2°53.289 15.820909 0.070437 0.415143 -0.882377
2004-11-24 08:14:42 51°18.816 2°53.322 15.806716 0.070437 0.415158 -0.916087
2004-11-24 08:15:46 51°18.902 2°53.671 15.814534 0.070437 0.415165 -0.882377
2004-11-24 08:15:50 51°18.907 2°53.693 15.809927 0.070437 0.415173 -0.882377
2004-11-24 08:15:54 51°18.913 2°53.714 15.809927 0.070437 0.415173 -0.882377
2004-11-24 08:16:04 51°18.927 2°53.769 15.83347 0.070437 0.41518 -0.916087
2004-11-24 08:16:11 51°18.936 2°53.807 15.829888 0.070437 0.415173 -0.882377
2004-11-24 08:16:16 51°18.943 2°53.835 15.840587 0.070333 0.41456 -0.916087
2004-11-24 08:16:21 51°18.95 2°53.862 15.84496 0.070333 0.414546 -0.882377
2004-11-24 08:16:26 51°18.957 2°53.889 15.84496 0.070333 0.414546 -0.882377
2004-11-24 08:16:30 51°18.962 2°53.911 15.843471 0.070437 0.415187 -0.882377
2004-11-24 08:16:36 51°18.97 2°53.944 15.810067 0.070437 0.415173 -0.882377
2004-11-24 08:16:38 51°18.973 2°53.955 15.839983 0.070333 0.414538 -0.882377
2004-11-24 08:16:44 51°18.98 2°53.988 15.814906 0.070437 0.41518 -0.882377
2004-11-24 08:16:50 51°18.987 2°54.022 15.860168 0.070437 0.41518 -0.882377
2004-11-24 08:16:56 51°18.996 2°54.055 15.860168 0.070437 0.41518 -0.882377
2004-11-24 08:16:59 51°18.999 2°54.072 15.818954 0.070437 0.415187 -0.916087
2004-11-24 08:17:05 51°19.008 2°54.105 15.869375 0.070437 0.415217 -0.882377
2004-11-24 08:17:09 51°19.013 2°54.127 15.819187 0.070437 0.415195 -0.882377
2004-11-24 08:17:16 51°19.022 2°54.165 15.844402 0.070333 0.414575 -0.916087
2004-11-24 08:17:20 51°19.027 2°54.188 15.825282 0.070333 0.414568 -0.882377
2004-11-24 08:17:25 51°19.033 2°54.216 15.825282 0.070333 0.414568 -0.882377
2004-11-24 08:17:32 51°19.042 2°54.255 15.835936 0.070437 0.415217 -0.882377
2004-11-24 08:17:36 51°19.046 2°54.277 15.828399 0.070333 0.414575 -0.916087
2004-11-24 08:17:40 51°19.052 2°54.3 15.859703 0.070437 0.41521 -0.916087
2004-11-24 08:17:45 51°19.058 2°54.327 15.817512 0.070333 0.414582 -0.916087
2004-11-24 08:17:52 51°19.067 2°54.366 15.853471 0.070437 0.415202 -0.882377
2004-11-24 08:17:55 51°19.071 2°54.383 15.853471 0.070437 0.415202 -0.882377
2004-11-24 08:18:01 51°19.079 2°54.416 15.830493 0.070333 0.414575 -0.882377
2004-11-24 08:18:04 51°19.083 2°54.433 15.843937 0.070333 0.414582 -0.882377
2004-11-24 08:18:10 51°19.09 2°54.466 15.857238 0.070437 0.415217 -0.882377
2004-11-24 08:18:16 51°19.099 2°54.499 15.831098 0.070333 0.41459 -0.882377
2004-11-24 08:18:19 51°19.103 2°54.516 15.846123 0.070333 0.414597 -0.882377
2004-11-24 08:18:26 51°19.112 2°54.555 15.846123 0.070333 0.414597 -0.882377
2004-11-24 08:18:30 51°19.117 2°54.577 15.833238 0.070333 0.414597 -0.916087
2004-11-24 08:18:36 51°19.125 2°54.61 15.885135 0.070333 0.414619 -0.882377
2004-11-24 08:18:41 51°19.131 2°54.638 15.854866 0.070437 0.415232 -0.882377
2004-11-24 08:18:46 51°19.137 2°54.666 15.833284 0.070437 0.415232 -0.882377
2004-11-24 08:18:51 51°19.144 2°54.694 15.877 0.070333 0.414612 -0.916087
2004-11-24 08:18:56 51°19.151 2°54.722 15.877 0.070333 0.414612 -0.916087
2004-11-24 08:19:01 51°19.157 2°54.749 15.875651 0.070437 0.415254 -0.882377
2004-11-24 08:19:04 51°19.161 2°54.766 15.843332 0.070333 0.414612 -0.882377
2004-11-24 08:19:10 51°19.169 2°54.799 15.886855 0.070333 0.414627 -0.882377
2004-11-24 08:19:16 51°19.176 2°54.832 15.879696 0.070437 0.415247 -0.882377
2004-11-24 08:19:21 51°19.183 2°54.86 15.854215 0.070333 0.414627 -0.882377
2004-11-24 08:19:26 51°19.189 2°54.887 15.854215 0.070333 0.414627 -0.882377
2004-11-24 08:19:32 51°19.197 2°54.92 15.864771 0.070437 0.415261 -0.916087
2004-11-24 08:19:36 51°19.203 2°54.942 15.851099 0.070437 0.415254 -0.916087
2004-11-24 08:19:39 51°19.206 2°54.959 15.843146 0.070437 0.415261 -0.882377
2004-11-24 08:19:44 51°19.213 2°54.987 15.85561 0.070333 0.414634 -0.848668
2004-11-24 08:19:52 51°19.223 2°55.031 15.863237 0.070333 0.414634 -0.916087
2004-11-24 08:19:56 51°19.228 2°55.053 15.863237 0.070333 0.414634 -0.916087
2004-11-24 08:20:00 51°19.234 2°55.075 15.863934 0.070333 0.414641 -0.916087
2004-11-24 08:20:04 51°19.239 2°55.097 15.860633 0.070437 0.415276 -0.848668
2004-11-24 08:20:12 51°19.25 2°55.141 15.878766 0.070437 0.415291 -0.882377
2004-11-24 08:20:16 51°19.256 2°55.163 15.864306 0.070333 0.414656 -0.882377
2004-11-24 08:20:20 51°19.261 2°55.185 15.866957 0.070437 0.415291 -0.882377
2004-11-24 08:20:42 51°19.292 2°55.305 15.871839 0.070437 0.415291 -0.949796
2004-11-24 08:20:46 51°19.297 2°55.327 15.866864 0.070437 0.415291 -0.916087
2004-11-24 08:21:04 51°19.321 2°55.426 15.881137 0.070437 0.415313 -0.916087
2004-11-24 08:21:08 51°19.327 2°55.448 15.881137 0.070437 0.415313 -0.916087
2004-11-24 08:21:13 51°19.334 2°55.476 15.910373 0.070333 0.414686 -0.882377
2004-11-24 08:21:17 51°19.339 2°55.498 15.861609 0.070437 0.415313 -0.882377
2004-11-24 08:21:24 51°19.349 2°55.536 15.928586 0.070437 0.415328 -0.882377
2004-11-24 08:21:28 51°19.354 2°55.558 15.892433 0.070333 0.414686 -0.916087
2004-11-24 08:21:33 51°19.362 2°55.585 15.869886 0.070333 0.414678 -0.916087
2004-11-24 08:21:38 51°19.368 2°55.613 15.869886 0.070333 0.414678 -0.916087
2004-11-24 08:21:44 51°19.377 2°55.646 15.89908 0.070333 0.414686 -0.916087
2004-11-24 08:21:48 51°19.382 2°55.668 15.868584 0.070437 0.415313 -0.882377
2004-11-24 08:22:08 51°19.409 2°55.778 15.899963 0.070437 0.415335 -0.882377
2004-11-24 08:22:16 51°19.421 2°55.823 15.884066 0.070333 0.414701 -0.916087
2004-11-24 08:22:21 51°19.426 2°55.851 15.926124 0.070437 0.41535 -0.916087
2004-11-24 08:22:24 51°19.431 2°55.868 15.926124 0.070437 0.41535 -0.916087
2004-11-24 08:23:03 51°19.484 2°56.086 15.891689 0.070437 0.415358 -0.882377
2004-11-24 08:23:08 51°19.491 2°56.114 15.891689 0.070437 0.415358 -0.882377
2004-11-24 08:23:12 51°19.497 2°56.136 15.884159 0.070437 0.415343 -0.916087
2004-11-24 08:23:16 51°19.502 2°56.159 15.897546 0.070437 0.415343 -0.882377
2004-11-24 08:23:21 51°19.509 2°56.186 15.896198 0.070333 0.414723 -0.882377
2004-11-24 08:23:28 51°19.519 2°56.226 15.928168 0.070437 0.415372 -0.882377
2004-11-24 08:23:33 51°19.526 2°56.253 15.883834 0.070437 0.415372 -0.882377
2004-11-24 08:23:38 51°19.533 2°56.282 15.883834 0.070437 0.415372 -0.882377
2004-11-24 08:23:43 51°19.54 2°56.31 15.785585 0.070333 0.414752 -0.916087
2004-11-24 08:23:48 51°19.547 2°56.338 15.800898 0.070437 0.415372 -0.882377
2004-11-24 08:23:53 51°19.554 2°56.365 15.812952 0.070437 0.41538 -0.882377
2004-11-24 08:23:58 51°19.56 2°56.394 15.819559 0.070437 0.415372 -0.916087
2004-11-24 08:24:03 51°19.567 2°56.422 15.827469 0.070437 0.41538 -0.882377
2004-11-24 08:24:08 51°19.574 2°56.45 15.827469 0.070437 0.41538 -0.882377
2004-11-24 08:24:12 51°19.579 2°56.473 15.833284 0.070437 0.415387 -0.882377
2004-11-24 08:24:16 51°19.585 2°56.495 15.842262 0.070333 0.41476 -0.882377
2004-11-24 08:24:22 51°19.593 2°56.529 15.842634 0.070333 0.414745 -0.916087
2004-11-24 08:24:42 51°19.621 2°56.641 15.859656 0.070437 0.415387 -0.882377
2004-11-24 08:25:10 51°19.659 2°56.798 15.868817 0.070333 0.414774 -0.882377
2004-11-24 08:25:16 51°19.667 2°56.832 15.874722 0.070437 0.415409 -0.882377
2004-11-24 08:25:20 51°19.673 2°56.854 15.874722 0.070437 0.415409 -0.882377
2004-11-24 08:25:28 51°19.683 2°56.899 15.873373 0.070437 0.415424 -0.916087
2004-11-24 08:25:36 51°19.694 2°56.944 15.870119 0.070333 0.414782 -0.848668
2004-11-24 08:25:41 51°19.701 2°56.972 15.87063 0.070437 0.415417 -0.848668
2004-11-24 08:25:43 51°19.704 2°56.983 15.883415 0.070437 0.415432 -0.916087
2004-11-24 08:25:50 51°19.714 2°57.022 15.865887 0.070333 0.414782 -0.882377
2004-11-24 08:25:56 51°19.722 2°57.056 15.865887 0.070333 0.414782 -0.882377
2004-11-24 08:26:00 51°19.728 2°57.078 15.875187 0.070437 0.415417 -0.882377
2004-11-24 08:26:06 51°19.736 2°57.112 15.876209 0.070333 0.414774 -0.916087
2004-11-24 08:26:11 51°19.743 2°57.14 15.875977 0.070437 0.415424 -0.848668
2004-11-24 08:26:16 51°19.75 2°57.168 15.874257 0.070437 0.415417 -0.882377
2004-11-24 08:26:21 51°19.757 2°57.195 15.884996 0.070437 0.415432 -0.882377
2004-11-24 08:26:24 51°19.761 2°57.212 15.884996 0.070437 0.415432 -0.882377
2004-11-24 08:26:30 51°19.769 2°57.246 15.877744 0.070437 0.415424 -0.848668
2004-11-24 08:26:42 51°19.785 2°57.313 15.895547 0.070437 0.415439 -0.916087
2004-11-24 08:26:47 51°19.792 2°57.341 15.88216 0.070437 0.415424 -0.882377
2004-11-24 08:26:49 51°19.794 2°57.352 15.898615 0.070437 0.415446 -0.882377
2004-11-24 08:26:59 51°19.808 2°57.408 15.881602 0.070437 0.415439 -0.916087
2004-11-24 08:27:04 51°19.815 2°57.435 15.889877 0.070437 0.415432 -0.882377
2004-11-24 08:27:08 51°19.82 2°57.458 15.899451 0.070437 0.415439 -0.882377
2004-11-24 08:27:14 51°19.828 2°57.491 15.899451 0.070437 0.415439 -0.882377
2004-11-24 08:27:18 51°19.833 2°57.514 15.889784 0.070437 0.415439 -0.882377
2004-11-24 08:27:24 51°19.841 2°57.547 15.896756 0.070437 0.415446 -0.916087
2004-11-24 08:27:29 51°19.848 2°57.575 15.895315 0.070437 0.415446 -0.882377
2004-11-24 08:27:42 51°19.865 2°57.648 15.910373 0.070437 0.415461 -0.848668
2004-11-24 08:27:46 51°19.871 2°57.671 15.903077 0.070437 0.415446 -0.882377
2004-11-24 08:27:52 51°19.879 2°57.704 15.908653 0.070437 0.415446 -0.882377
2004-11-24 08:27:56 51°19.884 2°57.726 15.908189 0.070437 0.415454 -0.882377
2004-11-24 08:28:01 51°19.891 2°57.754 15.908189 0.070437 0.415454 -0.882377
2004-11-24 08:28:06 51°19.898 2°57.782 15.90791 0.070437 0.415454 -0.882377
2004-11-24 08:28:12 51°19.906 2°57.816 15.906516 0.070437 0.415454 -0.916087
2004-11-24 08:28:16 51°19.911 2°57.838 15.91172 0.070437 0.415454 -0.882377
2004-11-24 08:28:21 51°19.918 2°57.866 15.908979 0.070437 0.415454 -0.848668
2004-11-24 08:28:24 51°19.922 2°57.882 15.907956 0.070437 0.415454 -0.882377
2004-11-24 08:28:32 51°19.932 2°57.927 15.907956 0.070437 0.415454 -0.882377
2004-11-24 08:28:36 51°19.938 2°57.949 15.929841 0.070437 0.415469 -0.882377
2004-11-24 08:28:42 51°19.946 2°57.983 15.916413 0.070437 0.415454 -0.916087
2004-11-24 08:28:47 51°19.953 2°58.01 15.924405 0.070437 0.415469 -0.882377
2004-11-24 08:28:49 51°19.956 2°58.022 15.933418 0.070437 0.415469 -0.882377
2004-11-24 08:28:57 51°19.967 2°58.066 15.930584 0.070437 0.415461 -0.882377
2004-11-24 08:29:00 51°19.971 2°58.083 15.930584 0.070437 0.415461 -0.882377
2004-11-24 08:29:05 51°19.978 2°58.11 15.932396 0.070437 0.415469 -0.916087
2004-11-24 08:29:12 51°19.987 2°58.149 15.930723 0.070333 0.414826 -0.882377
2004-11-24 08:29:16 51°19.993 2°58.171 15.935694 0.070437 0.415469 -0.882377
2004-11-24 08:29:22 51°20.001 2°58.205 15.926681 0.070437 0.415461 -0.882377
2004-11-24 08:29:42 51°20.027 2°58.317 15.934951 0.070437 0.415469 -0.882377
2004-11-24 08:30:10 51°20.065 2°58.473 15.948514 0.070437 0.415469 -0.882377
2004-11-24 08:30:16 51°20.073 2°58.506 15.95548 0.070437 0.415469 -0.882377
2004-11-24 08:30:20 51°20.079 2°58.529 15.95548 0.070437 0.415469 -0.882377
2004-11-24 08:30:28 51°20.089 2°58.573 15.965417 0.070437 0.415476 -0.882377
2004-11-24 08:30:36 51°20.1 2°58.618 15.955248 0.070437 0.415483 -0.882377
2004-11-24 08:30:41 51°20.108 2°58.645 15.964396 0.070437 0.415483 -0.916087
2004-11-24 08:30:43 51°20.11 2°58.657 15.963421 0.070437 0.415476 -0.882377
2004-11-24 08:30:50 51°20.119 2°58.696 15.964721 0.070437 0.415483 -0.882377
2004-11-24 08:30:56 51°20.127 2°58.729 15.964721 0.070437 0.415483 -0.882377
2004-11-24 08:31:00 51°20.133 2°58.751 15.969457 0.070437 0.415483 -0.916087
2004-11-24 08:31:06 51°20.14 2°58.785 15.967414 0.070437 0.415476 -0.882377
2004-11-24 08:31:11 51°20.147 2°58.813 15.979996 0.070437 0.415483 -0.882377
2004-11-24 08:31:16 51°20.153 2°58.841 15.973914 0.070437 0.415498 -0.882377
2004-11-24 08:31:21 51°20.16 2°58.868 15.970757 0.070437 0.415483 -0.916087
2004-11-24 08:31:24 51°20.164 2°58.885 15.970757 0.070437 0.415483 -0.916087
2004-11-24 08:31:30 51°20.173 2°58.918 15.98162 0.070437 0.415498 -0.882377
2004-11-24 08:31:42 51°20.189 2°58.984 15.977164 0.070437 0.415498 -0.882377
2004-11-24 08:31:44 51°20.192 2°58.996 16.00687 0.070437 0.415506 -0.882377
2004-11-24 08:31:55 51°20.207 2°59.056 15.981435 0.070437 0.415483 -0.848668
2004-11-24 08:32:00 51°20.214 2°59.084 16.000744 0.070437 0.415506 -0.882377
2004-11-24 08:32:04 51°20.219 2°59.106 15.991554 0.070437 0.415491 -0.882377
2004-11-24 08:32:08 51°20.224 2°59.128 16.002136 0.070437 0.415506 -0.882377
2004-11-24 08:32:14 51°20.232 2°59.162 15.996706 0.070437 0.415491 -0.916087
2004-11-24 08:32:20 51°20.24 2°59.195 15.996706 0.070437 0.415491 -0.916087
2004-11-24 08:32:22 51°20.243 2°59.207 15.996752 0.070437 0.415506 -0.882377
2004-11-24 08:32:34 51°20.258 2°59.274 16.007334 0.070437 0.415506 -0.916087
2004-11-24 08:32:40 51°20.266 2°59.307 16.008679 0.070437 0.415506 -0.882377
2004-11-24 08:32:44 51°20.271 2°59.33 16.010814 0.070437 0.415513 -0.916087
2004-11-24 08:32:48 51°20.277 2°59.352 16.010814 0.070437 0.415513 -0.916087
2004-11-24 08:32:55 51°20.287 2°59.392 16.008772 0.070437 0.415506 -0.882377
2004-11-24 08:33:00 51°20.294 2°59.421 16.013041 0.070437 0.415513 -0.882377
2004-11-24 08:33:04 51°20.3 2°59.443 16.02761 0.070437 0.415513 -0.916087
2004-11-24 08:33:09 51°20.306 2°59.472 16.015454 0.070437 0.415506 -0.882377
2004-11-24 08:33:34 51°20.34 2°59.615 16.028352 0.070437 0.415535 -0.916087
2004-11-24 08:33:38 51°20.346 2°59.638 16.026172 0.070437 0.41552 -0.882377
2004-11-24 08:33:44 51°20.354 2°59.672 16.026172 0.070437 0.41552 -0.882377
2004-11-24 08:33:49 51°20.36 2°59.7 16.03531 0.070437 0.415528 -0.916087
2004-11-24 08:33:54 51°20.367 2°59.729 16.054327 0.070437 0.415528 -0.882377
2004-11-24 08:33:58 51°20.373 2°59.751 16.046071 0.070437 0.415535 -0.882377
2004-11-24 08:34:04 51°20.381 2°59.786 16.039717 0.070437 0.415535 -0.916087
2004-11-24 08:34:08 51°20.387 2°59.809 16.039903 0.070437 0.415528 -0.882377
2004-11-24 08:34:14 51°20.395 2°59.843 16.039903 0.070437 0.415528 -0.882377
2004-11-24 08:34:19 51°20.402 2°59.872 16.04584 0.070437 0.415528 -0.916087
2004-11-24 08:34:22 51°20.407 2°59.889 16.051127 0.070437 0.415535 -0.916087
2004-11-24 08:34:29 51°20.416 2°59.929 16.05646 0.070437 0.415528 -0.882377
2004-11-24 08:34:34 51°20.423 2°59.957 16.048947 0.070437 0.415535 -0.882377
2004-11-24 08:34:39 51°20.43 2°59.986 16.049874 0.070437 0.415543 -0.882377
2004-11-24 08:34:44 51°20.437 3°0.015 16.049874 0.070437 0.415543 -0.882377
2004-11-24 08:34:48 51°20.443 3°0.037 16.058083 0.070437 0.415543 -0.882377
2004-11-24 08:34:54 51°20.45 3°0.072 16.050292 0.070437 0.415535 -0.882377
2004-11-24 08:34:58 51°20.456 3°0.095 16.076675 0.070437 0.415557 -0.882377
2004-11-24 08:35:03 51°20.463 3°0.123 16.064064 0.070437 0.415543 -0.882377
2004-11-24 08:35:09 51°20.471 3°0.158 16.07394 0.070437 0.41555 -0.882377
2004-11-24 08:35:12 51°20.475 3°0.175 16.07394 0.070437 0.41555 -0.882377
2004-11-24 08:35:26 51°20.494 3°0.255 16.066522 0.070437 0.41555 -0.882377
2004-11-24 08:35:32 51°20.503 3°0.29 16.095078 0.070437 0.415557 -0.882377
2004-11-24 08:35:36 51°20.508 3°0.313 16.063833 0.070437 0.415557 -0.882377
2004-11-24 08:35:41 51°20.515 3°0.341 16.076722 0.070437 0.41555 -0.882377
2004-11-24 08:35:46 51°20.522 3°0.37 16.112826 0.070437 0.415557 -0.882377
2004-11-24 08:35:48 51°20.525 3°0.381 16.072642 0.070437 0.41555 -0.916087
2004-11-24 08:35:56 51°20.535 3°0.428 16.072642 0.070437 0.41555 -0.916087
2004-11-24 08:36:01 51°20.542 3°0.456 16.108146 0.070437 0.415565 -0.882377
2004-11-24 08:36:06 51°20.549 3°0.485 16.081126 0.070437 0.41555 -0.882377
2004-11-24 08:36:12 51°20.557 3°0.519 16.098183 0.070437 0.415565 -0.882377
2004-11-24 08:36:16 51°20.563 3°0.542 16.083907 0.070437 0.415565 -0.882377
2004-11-24 08:36:18 51°20.566 3°0.554 16.086457 0.070437 0.41555 -0.882377
2004-11-24 08:36:26 51°20.577 3°0.6 16.086457 0.070437 0.41555 -0.882377
2004-11-24 08:36:30 51°20.582 3°0.623 16.117506 0.070437 0.415565 -0.882377
2004-11-24 08:36:36 51°20.59 3°0.657 16.101566 0.070437 0.415565 -0.916087
2004-11-24 08:36:49 51°20.608 3°0.732 16.102678 0.070437 0.415572 -0.882377
2004-11-24 08:36:55 51°20.617 3°0.767 16.1138 0.070437 0.415572 -0.916087
2004-11-24 08:37:00 51°20.624 3°0.795 16.100361 0.070437 0.415572 -0.882377
2004-11-24 08:37:05 51°20.631 3°0.823 16.120008 0.070437 0.41558 -0.882377
2004-11-24 08:37:10 51°20.638 3°0.852 16.094012 0.070437 0.41555 -0.882377
2004-11-24 08:37:16 51°20.646 3°0.886 16.139187 0.070437 0.415572 -0.882377
2004-11-24 08:37:20 51°20.651 3°0.91 16.139187 0.070437 0.415572 -0.882377
2004-11-24 08:37:24 51°20.657 3°0.933 16.115468 0.070437 0.415565 -0.916087
2004-11-24 08:37:30 51°20.665 3°0.968 16.106942 0.070437 0.415565 -0.882377
2004-11-24 08:37:35 51°20.672 3°0.997 16.134925 0.070437 0.415587 -0.882377
2004-11-24 08:37:40 51°20.678 3°1.026 16.134786 0.070437 0.415587 -0.882377
2004-11-24 08:37:44 51°20.684 3°1.049 16.117506 0.070437 0.415572 -0.882377
2004-11-24 08:37:50 51°20.692 3°1.083 16.117506 0.070437 0.415572 -0.882377
2004-11-24 08:37:55 51°20.699 3°1.112 16.13738 0.070437 0.41558 -0.848668
2004-11-24 08:38:00 51°20.706 3°1.141 16.147292 0.070437 0.41558 -0.882377
2004-11-24 08:38:05 51°20.712 3°1.17 16.128301 0.070437 0.41558 -0.916087
2004-11-24 08:38:09 51°20.719 3°1.193 16.134091 0.070437 0.415587 -0.882377
2004-11-24 08:38:14 51°20.725 3°1.222 16.134369 0.070437 0.41558 -0.916087
2004-11-24 08:38:20 51°20.733 3°1.257 16.134369 0.070437 0.41558 -0.916087
2004-11-24 08:38:24 51°20.739 3°1.28 16.148264 0.070437 0.415587 -0.882377
2004-11-24 08:38:28 51°20.745 3°1.303 16.131914 0.070437 0.41558 -0.882377
2004-11-24 08:38:34 51°20.753 3°1.337 16.162759 0.070437 0.415594 -0.882377
2004-11-24 08:38:38 51°20.759 3°1.36 16.135713 0.070437 0.415602 -0.916087
2004-11-24 08:38:44 51°20.767 3°1.395 16.146366 0.070437 0.415602 -0.882377
2004-11-24 08:38:50 51°20.775 3°1.43 16.146366 0.070437 0.415602 -0.882377
2004-11-24 08:38:54 51°20.781 3°1.453 16.162157 0.070437 0.415594 -0.882377
2004-11-24 08:38:58 51°20.787 3°1.476 16.138677 0.070437 0.415594 -0.916087
2004-11-24 08:39:02 51°20.792 3°1.499 16.176417 0.070437 0.415594 -0.882377
2004-11-24 08:39:10 51°20.803 3°1.545 16.147894 0.070437 0.41558 -0.848668
2004-11-24 08:39:14 51°20.809 3°1.568 16.160814 0.070437 0.415594 -0.882377
2004-11-24 08:39:24 51°20.823 3°1.626 16.160629 0.070437 0.415594 -0.882377
2004-11-24 08:39:32 51°20.834 3°1.673 16.176972 0.070437 0.415587 -0.882377
2004-11-24 08:39:36 51°20.84 3°1.696 16.156924 0.070437 0.415594 -0.882377
2004-11-24 08:39:39 51°20.844 3°1.713 16.171648 0.070437 0.415587 -0.882377
2004-11-24 08:39:46 51°20.854 3°1.754 16.170074 0.070437 0.415609 -0.916087
2004-11-24 08:39:50 51°20.859 3°1.777 16.169843 0.070437 0.415602 -0.882377
2004-11-24 08:39:56 51°20.868 3°1.812 16.169843 0.070437 0.415602 -0.882377
2004-11-24 08:40:01 51°20.875 3°1.841 16.175907 0.070437 0.415602 -0.882377
2004-11-24 08:40:22 51°20.905 3°1.963 16.173037 0.070437 0.415602 -0.882377
2004-11-24 08:40:28 51°20.913 3°1.998 16.185258 0.070437 0.415602 -0.882377
2004-11-24 08:40:32 51°20.918 3°2.021 16.183175 0.070437 0.415609 -0.882377
2004-11-24 08:40:38 51°20.927 3°2.056 16.183175 0.070437 0.415609 -0.882377
2004-11-24 08:40:44 51°20.935 3°2.091 16.18336 0.070437 0.415617 -0.882377
2004-11-24 08:40:48 51°20.94 3°2.115 16.194099 0.070437 0.415624 -0.882377
2004-11-24 08:40:52 51°20.946 3°2.138 16.192988 0.070437 0.415624 -0.882377
2004-11-24 08:40:58 51°20.954 3°2.173 16.194839 0.070437 0.415624 -0.916087
2004-11-24 08:41:04 51°20.963 3°2.208 16.196274 0.070437 0.415624 -0.916087
2004-11-24 08:41:08 51°20.968 3°2.232 16.196274 0.070437 0.415624 -0.916087
2004-11-24 08:41:13 51°20.975 3°2.261 16.209046 0.070437 0.415617 -0.916087
2004-11-24 08:41:18 51°20.982 3°2.29 16.191322 0.070437 0.415624 -0.916087
2004-11-24 08:41:22 51°20.988 3°2.313 16.231485 0.070437 0.415631 -0.916087
2004-11-24 08:41:28 51°20.996 3°2.349 16.202244 0.070437 0.415624 -0.882377
2004-11-24 08:41:33 51°21.003 3°2.378 16.218346 0.070437 0.415639 -0.882377
2004-11-24 08:41:44 51°21.019 3°2.442 16.212933 0.070437 0.415631 -0.882377
2004-11-24 08:41:48 51°21.024 3°2.466 16.21793 0.070437 0.415646 -0.882377
2004-11-24 08:41:56 51°21.036 3°2.512 16.21793 0.070437 0.415646 -0.882377
2004-11-24 08:42:00 51°21.041 3°2.535 16.220382 0.070437 0.415624 -0.882377
2004-11-24 08:42:23 51°21.075 3°2.669 16.228663 0.070437 0.415646 -0.882377
2004-11-24 08:42:28 51°21.082 3°2.699 16.234353 0.070437 0.415646 -0.882377
2004-11-24 08:42:32 51°21.088 3°2.722 16.214044 0.070437 0.415639 -0.882377
2004-11-24 08:42:36 51°21.093 3°2.745 16.214044 0.070437 0.415639 -0.882377
2004-11-24 08:42:40 51°21.099 3°2.769 16.234214 0.070437 0.415639 -0.882377
2004-11-24 08:42:48 51°21.11 3°2.816 16.241892 0.070437 0.415639 -0.882377
2004-11-24 08:42:52 51°21.116 3°2.839 16.239487 0.070437 0.415646 -0.882377
2004-11-24 08:42:58 51°21.125 3°2.874 16.238932 0.070437 0.415639 -0.882377
2004-11-24 08:43:02 51°21.13 3°2.898 16.254841 0.070437 0.415654 -0.882377
2004-11-24 08:43:08 51°21.139 3°2.932 16.254841 0.070437 0.415654 -0.882377
2004-11-24 08:43:11 51°21.143 3°2.95 16.237313 0.070437 0.415646 -0.882377
2004-11-24 08:43:17 51°21.152 3°2.985 16.246517 0.070437 0.415646 -0.882377
2004-11-24 08:43:23 51°21.161 3°3.02 16.251049 0.070437 0.415646 -0.916087
2004-11-24 08:43:28 51°21.167 3°3.05 16.241753 0.070437 0.415639 -0.882377
2004-11-24 08:43:34 51°21.176 3°3.085 16.245453 0.070437 0.415661 -0.916087
2004-11-24 08:43:38 51°21.182 3°3.108 16.245453 0.070437 0.415661 -0.916087
2004-11-24 08:43:42 51°21.187 3°3.131 16.254009 0.070437 0.415646 -0.882377
2004-11-24 08:43:47 51°21.195 3°3.161 16.272596 0.070437 0.415661 -0.916087
2004-11-24 08:43:52 51°21.202 3°3.191 16.259465 0.070437 0.415654 -0.916087
2004-11-24 08:43:57 51°21.209 3°3.22 16.271255 0.070437 0.415661 -0.882377
2004-11-24 08:44:04 51°21.218 3°3.261 16.276248 0.070437 0.415654 -0.916087
2004-11-24 08:44:08 51°21.224 3°3.284 16.276248 0.070437 0.415654 -0.916087
2004-11-24 08:44:12 51°21.229 3°3.308 16.257014 0.070437 0.415661 -0.882377
2004-11-24 08:44:18 51°21.238 3°3.343 16.274491 0.070437 0.415661 -0.882377
2004-11-24 08:44:23 51°21.244 3°3.373 16.276248 0.070437 0.415654 -0.916087
2004-11-24 08:44:28 51°21.252 3°3.402 16.272596 0.070437 0.415661 -0.882377
2004-11-24 08:44:32 51°21.257 3°3.426 16.284476 0.070437 0.415661 -0.848668
2004-11-24 08:44:38 51°21.266 3°3.461 16.284476 0.070437 0.415661 -0.848668
2004-11-24 08:44:43 51°21.273 3°3.49 16.276618 0.070437 0.415669 -0.916087
2004-11-24 08:44:46 51°21.277 3°3.507 16.280824 0.070437 0.415669 -0.882377
2004-11-24 08:45:04 51°21.303 3°3.613 16.282812 0.070437 0.415661 -0.882377
2004-11-24 08:45:08 51°21.309 3°3.637 16.282812 0.070437 0.415661 -0.882377
2004-11-24 08:45:12 51°21.314 3°3.66 16.307907 0.070437 0.415676 -0.882377
2004-11-24 08:45:16 51°21.32 3°3.684 16.297186 0.070437 0.415683 -0.882377
2004-11-24 08:45:20 51°21.326 3°3.707 16.303425 0.070437 0.415683 -0.882377
2004-11-24 08:45:28 51°21.337 3°3.754 16.31165 0.070437 0.415683 -0.916087
2004-11-24 08:45:32 51°21.344 3°3.777 16.29506 0.070437 0.415669 -0.882377
2004-11-24 08:45:38 51°21.352 3°3.812 16.29506 0.070437 0.415669 -0.882377
2004-11-24 08:45:42 51°21.358 3°3.835 16.313498 0.070437 0.415676 -0.882377
2004-11-24 08:45:48 51°21.366 3°3.87 16.297417 0.070437 0.415676 -0.916087
2004-11-24 08:45:51 51°21.371 3°3.887 16.310264 0.070437 0.415683 -0.882377
2004-11-24 08:45:58 51°21.381 3°3.928 16.334056 0.070437 0.415706 -0.882377
2004-11-24 08:46:02 51°21.387 3°3.951 16.307584 0.070437 0.415691 -0.882377
2004-11-24 08:46:08 51°21.395 3°3.986 16.307584 0.070437 0.415691 -0.882377
2004-11-24 08:46:12 51°21.401 3°4.01 16.336181 0.070437 0.415698 -0.882377
2004-11-24 08:46:18 51°21.41 3°4.044 16.323939 0.070437 0.415698 -0.916087
2004-11-24 08:46:22 51°21.415 3°4.068 16.329437 0.070437 0.415683 -0.882377
2004-11-24 08:46:28 51°21.425 3°4.102 16.325649 0.070437 0.415691 -0.882377
2004-11-24 08:46:33 51°21.431 3°4.131 16.335488 0.070437 0.415691 -0.882377
2004-11-24 08:46:38 51°21.439 3°4.16 16.335488 0.070437 0.415691 -0.882377
2004-11-24 08:46:43 51°21.445 3°4.19 16.327958 0.070437 0.415683 -0.882377
2004-11-24 08:46:45 51°21.449 3°4.201 16.340568 0.070437 0.415698 -0.882377
2004-11-24 08:46:58 51°21.466 3°4.277 16.33267 0.070437 0.415698 -0.882377
2004-11-24 08:47:02 51°21.471 3°4.301 16.365597 0.070437 0.415713 -0.882377
2004-11-24 08:47:06 51°21.477 3°4.324 16.365597 0.070437 0.415713 -0.882377
2004-11-24 08:47:13 51°21.487 3°4.365 16.336966 0.070437 0.415706 -0.882377
2004-11-24 08:47:17 51°21.492 3°4.389 16.346619 0.070437 0.415698 -0.882377
2004-11-24 08:47:22 51°21.5 3°4.418 16.362457 0.070437 0.41572 -0.882377
2004-11-24 08:47:28 51°21.508 3°4.453 16.347496 0.070437 0.415706 -0.916087
2004-11-24 08:47:32 51°21.515 3°4.476 16.343247 0.070437 0.415691 -0.882377
2004-11-24 08:47:37 51°21.521 3°4.505 16.343247 0.070437 0.415691 -0.882377
2004-11-24 08:47:43 51°21.53 3°4.541 16.374692 0.070437 0.415706 -0.916087
2004-11-24 08:47:48 51°21.537 3°4.57 16.373584 0.070437 0.415713 -0.882377
2004-11-24 08:47:53 51°21.544 3°4.599 16.358255 0.070437 0.415713 -0.848668
2004-11-24 08:47:58 51°21.551 3°4.628 16.368413 0.070437 0.415713 -0.916087
2004-11-24 08:48:04 51°21.559 3°4.663 16.362042 0.070437 0.415713 -0.916087
2004-11-24 08:48:08 51°21.565 3°4.687 16.362042 0.070437 0.415713 -0.916087
2004-11-24 08:48:12 51°21.571 3°4.711 16.369013 0.070437 0.415713 -0.882377
2004-11-24 08:48:18 51°21.579 3°4.746 16.369475 0.070437 0.415706 -0.882377
2004-11-24 08:48:23 51°21.586 3°4.775 16.377877 0.070437 0.415706 -0.848668
2004-11-24 08:48:28 51°21.594 3°4.805 16.386324 0.070437 0.415706 -0.916087
2004-11-24 08:48:34 51°21.603 3°4.84 16.377969 0.070437 0.415713 -0.882377
2004-11-24 08:48:38 51°21.608 3°4.863 16.377969 0.070437 0.415713 -0.882377
2004-11-24 08:48:42 51°21.614 3°4.887 16.386416 0.070437 0.41572 -0.882377
2004-11-24 08:48:48 51°21.623 3°4.922 16.373768 0.070437 0.41572 -0.916087
2004-11-24 08:48:53 51°21.63 3°4.951 16.392324 0.070437 0.41572 -0.882377
2004-11-24 08:48:58 51°21.637 3°4.98 16.382585 0.070437 0.41572 -0.882377
2004-11-24 08:49:02 51°21.643 3°5.004 16.38817 0.070437 0.415728 -0.882377
2004-11-24 08:49:08 51°21.651 3°5.039 16.38817 0.070437 0.415728 -0.882377
2004-11-24 08:49:13 51°21.657 3°5.069 16.380046 0.070437 0.415713 -0.882377
2004-11-24 08:49:18 51°21.664 3°5.099 16.409814 0.070437 0.415728 -0.916087
2004-11-24 08:49:23 51°21.669 3°5.13 16.389601 0.070437 0.41572 -0.916087
2004-11-24 08:49:26 51°21.673 3°5.147 16.395324 0.070437 0.41572 -0.882377
2004-11-24 08:49:46 51°21.696 3°5.268 16.445102 0.070437 0.41575 -0.882377
2004-11-24 08:49:51 51°21.702 3°5.298 16.409121 0.070437 0.415735 -0.882377
2004-11-24 08:49:56 51°21.708 3°5.328 16.409121 0.070437 0.415735 -0.882377
2004-11-24 08:50:00 51°21.713 3°5.352 16.435048 0.070437 0.41575 -0.882377
2004-11-24 08:50:06 51°21.72 3°5.389 16.416827 0.070437 0.415735 -0.882377
2004-11-24 08:50:12 51°21.727 3°5.425 16.418764 0.070437 0.415743 -0.916087
2004-11-24 08:50:16 51°21.731 3°5.448 16.414797 0.070437 0.415743 -0.882377
2004-11-24 08:50:20 51°21.736 3°5.472 16.427299 0.070437 0.415743 -0.882377
2004-11-24 08:50:26 51°21.743 3°5.509 16.427299 0.070437 0.415743 -0.882377
2004-11-24 08:50:42 51°21.761 3°5.605 16.442658 0.070437 0.415743 -0.882377
2004-11-24 08:50:48 51°21.769 3°5.641 16.436155 0.070437 0.415743 -0.882377
2004-11-24 08:51:02 51°21.785 3°5.726 16.451559 0.070437 0.41575 -0.916087
2004-11-24 08:51:05 51°21.788 3°5.744 16.437262 0.070437 0.415743 -0.882377
2004-11-24 08:51:12 51°21.797 3°5.787 16.43597 0.070437 0.41575 -0.916087
2004-11-24 08:51:15 51°21.8 3°5.805 16.456677 0.070437 0.41575 -0.848668
2004-11-24 08:51:22 51°21.808 3°5.847 16.450406 0.070437 0.41575 -0.882377
2004-11-24 08:51:26 51°21.812 3°5.872 16.461149 0.070437 0.415765 -0.916087
2004-11-24 08:52:06 51°21.858 3°6.115 16.471615 0.070437 0.415757 -0.882377
2004-11-24 08:52:09 51°21.861 3°6.134 16.456446 0.070437 0.415743 -0.882377
2004-11-24 08:52:16 51°21.869 3°6.177 16.479774 0.070437 0.415757 -0.882377
2004-11-24 08:52:20 51°21.873 3°6.202 16.460227 0.070437 0.415743 -0.882377
2004-11-24 08:52:26 51°21.879 3°6.239 16.460227 0.070437 0.415743 -0.882377
2004-11-24 08:52:32 51°21.885 3°6.275 16.483646 0.070437 0.415757 -0.882377
2004-11-24 08:52:36 51°21.889 3°6.3 16.469126 0.070437 0.41575 -0.848668
2004-11-24 08:52:39 51°21.892 3°6.319 16.503141 0.070437 0.415772 -0.916087
2004-11-24 08:52:46 51°21.9 3°6.362 16.482586 0.070437 0.41575 -0.882377
2004-11-24 08:52:50 51°21.904 3°6.386 16.508854 0.070437 0.415765 -0.882377
2004-11-24 08:52:56 51°21.912 3°6.422 16.508854 0.070437 0.415765 -0.882377
2004-11-24 08:53:01 51°21.92 3°6.451 16.521893 0.070437 0.41578 -0.916087
2004-11-24 08:53:06 51°21.929 3°6.48 16.501021 0.070437 0.415772 -0.916087
2004-11-24 08:53:12 51°21.939 3°6.514 16.500883 0.070437 0.415772 -0.916087
2004-11-24 08:53:14 51°21.943 3°6.525 16.502403 0.070437 0.415772 -0.916087
2004-11-24 08:53:19 51°21.952 3°6.553 16.494708 0.070437 0.415757 -0.882377
2004-11-24 08:53:26 51°21.965 3°6.592 16.494708 0.070437 0.415757 -0.882377
2004-11-24 08:53:30 51°21.974 3°6.614 16.519497 0.070437 0.415757 -0.882377
2004-11-24 08:53:36 51°21.985 3°6.647 16.497611 0.070437 0.41575 -0.882377
2004-11-24 08:53:38 51°21.99 3°6.658 16.503601 0.070437 0.41575 -0.848668
2004-11-24 08:53:46 51°22.005 3°6.702 16.516042 0.070437 0.415765 -0.882377
2004-11-24 08:53:52 51°22.017 3°6.736 16.503463 0.070437 0.415757 -0.848668
2004-11-24 08:53:56 51°22.025 3°6.758 16.503463 0.070437 0.415757 -0.848668
2004-11-24 08:53:59 51°22.03 3°6.775 16.5089 0.070437 0.415757 -0.916087
2004-11-24 08:54:06 51°22.044 3°6.814 16.514245 0.070437 0.415765 -0.882377
2004-11-24 08:54:10 51°22.051 3°6.836 16.504385 0.070437 0.41575 -0.882377
2004-11-24 08:54:16 51°22.062 3°6.871 16.525624 0.070437 0.415757 -0.916087
2004-11-24 08:54:21 51°22.069 3°6.9 16.506781 0.070437 0.41575 -0.848668
2004-11-24 08:54:26 51°22.078 3°6.929 16.506781 0.070437 0.41575 -0.848668
2004-11-24 08:54:28 51°22.08 3°6.941 16.508762 0.070437 0.415743 -0.882377
2004-11-24 08:54:36 51°22.091 3°6.989 16.54087 0.070437 0.415765 -0.882377
2004-11-24 08:54:38 51°22.094 3°7.001 16.51466 0.070437 0.41575 -0.882377
2004-11-24 08:54:46 51°22.103 3°7.05 16.547778 0.070437 0.415772 -0.882377
2004-11-24 08:54:55 51°22.113 3°7.105 16.545567 0.070437 0.415772 -0.882377
2004-11-24 08:55:03 51°22.121 3°7.155 16.523505 0.070437 0.415757 -0.882377
2004-11-24 08:55:08 51°22.125 3°7.186 16.523505 0.070437 0.415757 -0.882377
2004-11-24 08:55:14 51°22.13 3°7.224 16.562466 0.070437 0.415757 -0.882377
2004-11-24 08:55:18 51°22.134 3°7.249 16.551646 0.070437 0.415765 -0.882377
2004-11-24 08:55:24 51°22.137 3°7.287 16.538337 0.070437 0.415757 -0.882377
2004-11-24 08:55:28 51°22.141 3°7.312 16.543909 0.070437 0.415765 -0.882377
2004-11-24 08:55:32 51°22.143 3°7.338 16.574528 0.070437 0.415787 -0.916087
2004-11-24 08:55:38 51°22.147 3°7.376 16.574528 0.070437 0.415787 -0.916087
2004-11-24 08:55:42 51°22.15 3°7.401 16.5481 0.070437 0.415772 -0.882377
2004-11-24 08:55:48 51°22.154 3°7.439 16.570661 0.070437 0.415795 -0.882377
2004-11-24 08:55:53 51°22.158 3°7.471 16.560487 0.070437 0.41578 -0.882377
2004-11-24 08:56:04 51°22.165 3°7.54 16.559289 0.070437 0.415765 -0.882377
2004-11-24 08:56:12 51°22.171 3°7.591 16.587784 0.070437 0.415772 -0.882377
2004-11-24 08:56:16 51°22.173 3°7.616 16.567715 0.070437 0.415757 -0.882377
2004-11-24 08:56:19 51°22.175 3°7.636 16.599796 0.070437 0.41578 -0.882377
2004-11-24 08:56:26 51°22.18 3°7.68 16.599796 0.070437 0.41578 -0.882377
2004-11-24 08:56:32 51°22.184 3°7.718 16.569372 0.070437 0.415757 -0.916087
2004-11-24 08:56:36 51°22.187 3°7.744 16.59073 0.070437 0.41578 -0.882377
2004-11-24 08:56:40 51°22.19 3°7.769 16.599658 0.070437 0.41578 -0.882377
2004-11-24 08:56:46 51°22.194 3°7.807 16.577566 0.070437 0.415772 -0.882377
2004-11-24 08:56:48 51°22.195 3°7.82 16.597679 0.070437 0.415787 -0.882377
2004-11-24 08:56:56 51°22.201 3°7.871 16.597679 0.070437 0.415787 -0.882377
2004-11-24 08:57:00 51°22.204 3°7.896 16.592985 0.070437 0.41578 -0.882377
2004-11-24 08:57:05 51°22.208 3°7.928 16.593537 0.070437 0.41578 -0.882377
2004-11-24 08:57:11 51°22.212 3°7.966 16.590546 0.070437 0.415772 -0.882377
2004-11-24 08:57:16 51°22.217 3°7.997 16.602465 0.070437 0.415772 -0.916087
2004-11-24 08:57:20 51°22.219 3°8.023 16.609597 0.070437 0.415772 -0.882377
2004-11-24 08:57:26 51°22.224 3°8.061 16.609597 0.070437 0.415772 -0.882377
2004-11-24 08:57:32 51°22.228 3°8.099 16.59639 0.070437 0.41578 -0.882377
2004-11-24 08:57:36 51°22.232 3°8.124 16.613093 0.070437 0.41578 -0.916087
2004-11-24 08:57:41 51°22.235 3°8.156 16.614658 0.070437 0.415787 -0.882377
2004-11-24 08:57:46 51°22.239 3°8.188 16.597863 0.070437 0.415787 -0.848668
2004-11-24 08:57:51 51°22.243 3°8.219 16.625054 0.070437 0.415802 -0.916087
2004-11-24 08:57:54 51°22.245 3°8.239 16.625054 0.070437 0.415802 -0.916087
2004-11-24 08:58:02 51°22.251 3°8.289 16.617648 0.070437 0.415787 -0.916087
2004-11-24 08:58:04 51°22.252 3°8.302 16.609459 0.070437 0.415795 -0.916087
2004-11-24 08:58:10 51°22.254 3°8.341 16.594412 0.070437 0.415765 -0.882377
2004-11-24 08:58:22 51°22.256 3°8.418 16.629102 0.070437 0.41578 -0.916087
2004-11-24 08:58:24 51°22.256 3°8.431 16.621144 0.070437 0.41578 -0.848668
2004-11-24 08:58:32 51°22.254 3°8.483 16.621144 0.070437 0.41578 -0.848668
2004-11-24 08:58:36 51°22.254 3°8.508 16.649982 0.070437 0.415787 -0.882377
2004-11-24 08:58:42 51°22.252 3°8.547 16.625974 0.070437 0.41578 -0.916087
2004-11-24 08:58:46 51°22.252 3°8.573 16.664374 0.070437 0.415824 -0.882377
2004-11-24 08:58:52 51°22.25 3°8.611 16.657937 0.070437 0.415795 -0.916087
2004-11-24 08:58:56 51°22.251 3°8.637 16.64943 0.070437 0.415817 -0.882377
2004-11-24 08:59:04 51°22.25 3°8.688 16.672419 0.070437 0.415817 -0.882377
2004-11-24 08:59:10 51°22.25 3°8.727 16.647637 0.070437 0.415795 -0.882377
2004-11-24 08:59:22 51°22.252 3°8.805 16.648603 0.070437 0.415787 -0.882377
2004-11-24 08:59:28 51°22.252 3°8.843 16.645614 0.070437 0.41578 -0.882377
2004-11-24 08:59:29 51°22.252 3°8.849 16.645614 0.070437 0.41578 -0.882377
2004-11-24 08:59:37 51°22.253 3°8.901 16.665707 0.070437 0.41578 -0.916087
2004-11-24 08:59:41 51°22.254 3°8.927 16.657523 0.070437 0.415795 -0.882377
2004-11-24 08:59:46 51°22.254 3°8.96 16.663086 0.070437 0.415787 -0.882377
2004-11-24 08:59:52 51°22.255 3°8.998 16.65973 0.070437 0.415787 -0.916087
2004-11-24 08:59:56 51°22.256 3°9.024 16.672419 0.070437 0.415802 -0.848668
2004-11-24 09:00:00 51°22.256 3°9.05 16.672419 0.070437 0.415802 -0.848668
2004-11-24 09:00:06 51°22.257 3°9.089 16.682853 0.070437 0.415817 -0.882377
2004-11-24 09:00:12 51°22.257 3°9.127 16.665339 0.070437 0.415802 -0.882377
2004-11-24 09:00:14 51°22.257 3°9.14 16.694435 0.070437 0.415817 -0.882377
2004-11-24 09:00:25 51°22.26 3°9.212 16.678165 0.070437 0.415817 -0.882377
2004-11-24 09:00:30 51°22.259 3°9.244 16.67127 0.070437 0.415809 -0.882377
2004-11-24 09:00:36 51°22.261 3°9.283 16.707577 0.070437 0.415824 -0.882377
2004-11-24 09:00:41 51°22.261 3°9.315 16.678395 0.070437 0.415802 -0.848668
2004-11-24 09:00:53 51°22.263 3°9.393 16.709506 0.070437 0.415817 -0.882377
2004-11-24 09:00:59 51°22.263 3°9.432 16.691494 0.070437 0.415809 -0.916087
2004-11-24 09:01:04 51°22.263 3°9.464 16.692413 0.070437 0.415817 -0.882377
2004-11-24 09:01:08 51°22.263 3°9.49 16.709369 0.070437 0.415824 -0.882377
2004-11-24 09:01:14 51°22.263 3°9.529 16.709369 0.070437 0.415824 -0.882377
2004-11-24 09:01:18 51°22.263 3°9.555 16.691172 0.070437 0.415817 -0.882377
2004-11-24 09:01:24 51°22.26 3°9.593 16.67867 0.070437 0.415802 -0.882377
2004-11-24 09:01:28 51°22.258 3°9.619 16.704682 0.070437 0.415802 -0.882377
2004-11-24 09:01:34 51°22.255 3°9.658 16.725723 0.070437 0.415832 -0.916087
2004-11-24 09:01:38 51°22.253 3°9.684 16.713274 0.070437 0.415832 -0.916087
2004-11-24 09:01:44 51°22.249 3°9.722 16.713274 0.070437 0.415832 -0.916087
2004-11-24 09:01:49 51°22.248 3°9.755 16.743314 0.070437 0.415846 -0.882377
2004-11-24 09:01:54 51°22.246 3°9.787 16.725264 0.070437 0.415854 -0.882377
2004-11-24 09:01:59 51°22.246 3°9.82 16.744232 0.070437 0.415861 -0.882377
2004-11-24 09:02:04 51°22.245 3°9.853 16.718603 0.070437 0.415854 -0.916087
2004-11-24 09:02:09 51°22.245 3°9.885 16.721681 0.070437 0.415854 -0.882377
2004-11-24 09:02:12 51°22.243 3°9.905 16.721681 0.070437 0.415854 -0.882377
2004-11-24 09:02:19 51°22.239 3°9.95 16.718281 0.070437 0.415846 -0.882377
2004-11-24 09:02:24 51°22.235 3°9.982 16.703533 0.070437 0.415824 -0.916087
2004-11-24 09:02:28 51°22.23 3°10.006 16.71332 0.070437 0.415832 -0.882377
2004-11-24 09:02:34 51°22.223 3°10.044 16.751947 0.070437 0.415869 -0.916087
2004-11-24 09:02:36 51°22.22 3°10.056 16.744508 0.070437 0.415861 -0.916087
2004-11-24 09:02:44 51°22.211 3°10.106 16.744508 0.070437 0.415861 -0.916087
2004-11-24 09:02:49 51°22.205 3°10.137 16.753095 0.070437 0.415891 -0.916087
2004-11-24 09:02:54 51°22.2 3°10.169 16.754978 0.070437 0.415891 -0.882377
2004-11-24 09:02:59 51°22.194 3°10.2 16.750845 0.070437 0.415891 -0.916087
2004-11-24 09:03:04 51°22.189 3°10.232 16.766364 0.070437 0.415898 -0.916087
2004-11-24 09:03:08 51°22.185 3°10.258 16.746345 0.070437 0.415898 -0.882377
2004-11-24 09:03:12 51°22.181 3°10.283 16.746345 0.070437 0.415898 -0.882377
2004-11-24 09:03:22 51°22.172 3°10.348 16.758697 0.070437 0.415906 -0.882377
2004-11-24 09:03:27 51°22.166 3°10.379 16.774719 0.070437 0.415898 -0.916087
2004-11-24 09:03:32 51°22.162 3°10.411 16.774719 0.070437 0.415898 -0.916087
2004-11-24 09:03:36 51°22.157 3°10.437 16.762048 0.070437 0.415891 -0.882377
2004-11-24 09:04:02 51°22.142 3°10.608 16.786698 0.070437 0.415928 -0.916087
2004-11-24 09:04:08 51°22.142 3°10.648 16.80487 0.070437 0.415928 -0.882377
2004-11-24 09:04:12 51°22.142 3°10.675 16.784771 0.070437 0.415928 -0.848668
2004-11-24 09:04:16 51°22.143 3°10.702 16.791471 0.070437 0.415943 -0.882377
2004-11-24 09:04:22 51°22.144 3°10.743 16.818955 0.070437 0.41595 -0.882377
2004-11-24 09:04:26 51°22.146 3°10.769 16.792297 0.070437 0.41595 -0.882377
2004-11-24 09:04:32 51°22.15 3°10.809 16.792297 0.070437 0.41595 -0.882377
2004-11-24 09:04:36 51°22.154 3°10.835 16.811844 0.070437 0.41598 -0.882377
2004-11-24 09:04:54 51°22.171 3°10.954 16.808816 0.070437 0.415965 -0.882377
2004-11-24 09:05:00 51°22.176 3°10.994 16.787662 0.070437 0.41595 -0.882377
2004-11-24 09:05:04 51°22.181 3°11.019 16.817487 0.070437 0.415965 -0.882377
2004-11-24 09:05:09 51°22.186 3°11.052 16.80822 0.070437 0.41595 -0.882377
2004-11-24 09:05:14 51°22.192 3°11.085 16.80822 0.070437 0.41595 -0.882377
2004-11-24 09:05:19 51°22.197 3°11.118 16.807761 0.070437 0.415965 -0.882377
2004-11-24 09:05:24 51°22.205 3°11.15 16.832303 0.070437 0.41598 -0.882377
2004-11-24 09:05:28 51°22.209 3°11.176 16.814872 0.070437 0.415965 -0.882377
2004-11-24 09:05:34 51°22.218 3°11.214 16.821983 0.070437 0.41598 -0.882377
2004-11-24 09:05:38 51°22.223 3°11.241 16.82446 0.070437 0.41598 -0.916087
2004-11-24 09:05:44 51°22.231 3°11.279 16.82446 0.070437 0.41598 -0.916087
2004-11-24 09:05:49 51°22.238 3°11.312 16.811156 0.070437 0.41598 -0.882377
2004-11-24 09:05:54 51°22.245 3°11.343 16.826478 0.070437 0.415995 -0.882377
2004-11-24 09:05:59 51°22.251 3°11.376 16.823634 0.070437 0.41598 -0.882377
2004-11-24 09:06:04 51°22.259 3°11.409 16.84542 0.070437 0.416002 -0.916087
2004-11-24 09:06:08 51°22.264 3°11.435 16.828084 0.070437 0.416002 -0.916087
2004-11-24 09:06:11 51°22.268 3°11.454 16.828084 0.070437 0.416002 -0.916087
2004-11-24 09:06:19 51°22.278 3°11.506 16.846153 0.070437 0.416017 -0.882377
2004-11-24 09:06:24 51°22.285 3°11.539 16.843585 0.070437 0.416017 -0.882377
2004-11-24 09:06:28 51°22.29 3°11.565 16.833037 0.070437 0.416017 -0.882377
2004-11-24 09:06:34 51°22.297 3°11.604 16.856058 0.070437 0.416054 -0.882377
2004-11-24 09:06:38 51°22.302 3°11.631 16.838678 0.070437 0.416047 -0.882377
2004-11-24 09:06:44 51°22.31 3°11.67 16.838678 0.070437 0.416047 -0.882377
2004-11-24 09:06:48 51°22.314 3°11.696 16.852527 0.070437 0.416077 -0.916087
2004-11-24 09:06:52 51°22.32 3°11.722 16.850831 0.070437 0.416084 -0.882377
2004-11-24 09:06:58 51°22.327 3°11.762 16.851243 0.070437 0.416099 -0.882377
2004-11-24 09:07:08 51°22.34 3°11.826 16.864539 0.070437 0.416121 -0.882377
2004-11-24 09:07:16 51°22.35 3°11.879 16.853261 0.070437 0.416129 -0.916087
2004-11-24 09:07:18 51°22.353 3°11.892 16.853261 0.070437 0.416129 -0.916087
2004-11-24 09:07:24 51°22.36 3°11.932 16.85216 0.070333 0.415493 -0.882377
2004-11-24 09:07:38 51°22.377 3°12.024 16.887962 0.070437 0.416203 -0.882377
2004-11-24 09:07:44 51°22.384 3°12.063 16.887962 0.070437 0.416203 -0.882377
2004-11-24 09:07:48 51°22.389 3°12.089 16.876825 0.070333 0.415582 -0.882377
2004-11-24 09:07:54 51°22.397 3°12.129 16.876275 0.070333 0.415589 -0.882377
2004-11-24 09:07:58 51°22.402 3°12.155 16.889887 0.070437 0.416248 -0.848668
2004-11-24 09:08:04 51°22.409 3°12.194 16.879942 0.070437 0.416248 -0.916087
2004-11-24 09:08:09 51°22.416 3°12.227 16.883929 0.070333 0.415626 -0.848668
2004-11-24 09:08:14 51°22.422 3°12.26 16.883929 0.070333 0.415626 -0.848668
2004-11-24 09:08:18 51°22.426 3°12.286 16.883792 0.070333 0.415641 -0.916087
2004-11-24 09:08:24 51°22.434 3°12.325 16.904321 0.070333 0.415671 -0.882377
2004-11-24 09:08:28 51°22.439 3°12.352 16.8848 0.070333 0.415678 -0.916087
2004-11-24 09:08:34 51°22.446 3°12.391 16.897219 0.070333 0.4157 -0.882377
2004-11-24 09:08:38 51°22.451 3°12.418 16.9073 0.070333 0.415723 -0.882377
2004-11-24 09:08:44 51°22.458 3°12.457 16.9073 0.070333 0.415723 -0.882377
2004-11-24 09:08:48 51°22.463 3°12.483 16.890758 0.070333 0.41573 -0.882377
2004-11-24 09:08:54 51°22.47 3°12.523 16.896623 0.070333 0.415745 -0.882377
2004-11-24 09:08:59 51°22.476 3°12.556 16.917699 0.070333 0.415767 -0.848668
2004-11-24 09:09:04 51°22.482 3°12.589 16.90171 0.070333 0.415775 -0.882377
2004-11-24 09:09:08 51°22.487 3°12.615 16.918386 0.070333 0.415797 -0.882377
2004-11-24 09:09:26 51°22.509 3°12.735 16.908445 0.070333 0.415834 -0.882377
2004-11-24 09:09:32 51°22.516 3°12.774 16.930662 0.070333 0.415856 -0.882377
2004-11-24 09:09:36 51°22.52 3°12.801 16.912248 0.070333 0.415849 -0.916087
2004-11-24 09:09:40 51°22.525 3°12.827 16.937578 0.070333 0.415894 -0.916087
2004-11-24 09:09:45 51°22.531 3°12.861 16.922876 0.070333 0.415894 -0.882377
2004-11-24 09:09:50 51°22.537 3°12.894 16.928052 0.070333 0.415916 -0.882377
2004-11-24 09:10:08 51°22.557 3°13.013 16.940875 0.070333 0.415946 -0.882377
2004-11-24 09:10:13 51°22.563 3°13.046 16.942158 0.070333 0.415961 -0.916087
2004-11-24 09:10:16 51°22.566 3°13.066 16.935609 0.070333 0.415961 -0.916087
2004-11-24 09:10:26 51°22.577 3°13.133 16.953697 0.070333 0.416005 -0.882377
2004-11-24 09:10:32 51°22.584 3°13.173 16.953697 0.070333 0.416005 -0.882377
2004-11-24 09:10:36 51°22.589 3°13.199 16.948843 0.070333 0.416035 -0.882377
2004-11-24 09:10:42 51°22.596 3°13.239 16.944951 0.070333 0.416042 -0.882377
2004-11-24 09:10:58 51°22.614 3°13.345 16.954475 0.070229 0.41545 -0.882377
2004-11-24 09:11:04 51°22.621 3°13.385 16.966058 0.070333 0.416102 -0.882377
2004-11-24 09:11:08 51°22.625 3°13.412 16.963266 0.070229 0.415487 -0.882377
2004-11-24 09:11:14 51°22.632 3°13.452 16.963266 0.070229 0.415487 -0.882377
2004-11-24 09:11:18 51°22.636 3°13.479 16.955986 0.070229 0.415502 -0.882377
2004-11-24 09:11:24 51°22.643 3°13.518 16.966974 0.070229 0.41551 -0.882377
2004-11-24 09:11:28 51°22.647 3°13.545 16.980569 0.070229 0.415532 -0.916087
2004-11-24 09:11:32 51°22.652 3°13.571 16.968805 0.070229 0.415562 -0.882377
2004-11-24 09:11:39 51°22.66 3°13.618 16.985512 0.070229 0.415584 -0.882377
2004-11-24 09:11:44 51°22.665 3°13.652 16.985512 0.070229 0.415584 -0.882377
2004-11-24 09:11:48 51°22.67 3°13.678 16.977777 0.070229 0.415584 -0.916087
2004-11-24 09:11:53 51°22.675 3°13.711 16.972971 0.070229 0.415599 -0.882377
2004-11-24 09:11:59 51°22.682 3°13.751 16.982079 0.070229 0.415621 -0.882377
2004-11-24 09:12:02 51°22.685 3°13.771 16.990729 0.070229 0.415628 -0.882377
2004-11-24 09:12:09 51°22.693 3°13.818 17.00313 0.070229 0.415651 -0.916087
2004-11-24 09:12:14 51°22.698 3°13.851 17.00313 0.070229 0.415651 -0.916087
2004-11-24 09:12:19 51°22.704 3°13.884 16.988624 0.070229 0.415666 -0.848668
2004-11-24 09:12:24 51°22.71 3°13.917 17.002809 0.070229 0.415695 -0.882377
2004-11-24 09:12:26 51°22.712 3°13.931 17.012234 0.070229 0.415718 -0.848668
2004-11-24 09:12:50 51°22.743 3°14.088 17.016535 0.070229 0.415777 -0.882377
2004-11-24 09:12:54 51°22.748 3°14.114 16.99892 0.070229 0.415785 -0.916087
2004-11-24 09:12:58 51°22.753 3°14.14 17.000064 0.070229 0.4158 -0.916087
2004-11-24 09:13:04 51°22.761 3°14.18 17.035974 0.070229 0.415829 -0.882377
2004-11-24 09:13:07 51°22.764 3°14.2 17.016809 0.070229 0.415837 -0.882377
2004-11-24 09:13:14 51°22.773 3°14.246 17.022802 0.070229 0.415874 -0.882377
2004-11-24 09:13:20 51°22.781 3°14.285 17.022802 0.070229 0.415874 -0.882377
2004-11-24 09:13:28 51°22.791 3°14.338 17.024723 0.070229 0.415896 -0.882377
2004-11-24 09:13:34 51°22.799 3°14.378 17.041645 0.070229 0.415911 -0.916087
2004-11-24 09:13:38 51°22.804 3°14.404 17.029297 0.070125 0.415289 -0.916087
2004-11-24 09:13:44 51°22.812 3°14.443 17.026003 0.070125 0.415296 -0.882377
2004-11-24 09:13:48 51°22.817 3°14.469 17.026003 0.070125 0.415296 -0.882377
2004-11-24 09:13:55 51°22.826 3°14.514 17.033779 0.070125 0.415311 -0.916087
2004-11-24 09:14:00 51°22.833 3°14.547 17.049556 0.070229 0.415986 -0.882377
2004-11-24 09:14:02 51°22.836 3°14.56 17.045395 0.070125 0.415385 -0.882377
2004-11-24 09:14:10 51°22.848 3°14.612 17.027147 0.070125 0.415378 -0.882377
2004-11-24 09:14:14 51°22.854 3°14.638 17.048916 0.070125 0.415408 -0.882377
2004-11-24 09:14:20 51°22.863 3°14.676 17.048916 0.070125 0.415408 -0.882377
2004-11-24 09:14:24 51°22.87 3°14.701 17.062998 0.070125 0.415437 -0.882377
2004-11-24 09:14:30 51°22.879 3°14.739 17.051385 0.070125 0.415437 -0.882377
2004-11-24 09:14:34 51°22.887 3°14.764 17.063683 0.070125 0.415482 -0.882377
2004-11-24 09:14:46 51°22.908 3°14.839 17.047681 0.070125 0.415497 -0.916087
2004-11-24 09:14:50 51°22.915 3°14.864 17.076163 0.070125 0.415519 -0.916087
2004-11-24 09:14:56 51°22.926 3°14.901 17.076163 0.070125 0.415519 -0.916087
2004-11-24 09:15:00 51°22.934 3°14.925 17.074929 0.070125 0.415549 -0.882377
2004-11-24 09:15:05 51°22.945 3°14.954 17.077351 0.070125 0.415579 -0.882377
2004-11-24 09:15:10 51°22.956 3°14.982 17.081922 0.070125 0.415586 -0.882377
2004-11-24 09:15:14 51°22.965 3°15.005 17.085212 0.070125 0.415616 -0.848668
2004-11-24 09:15:20 51°22.98 3°15.037 17.082699 0.070125 0.415639 -0.882377
2004-11-24 09:15:26 51°22.996 3°15.067 17.082699 0.070125 0.415639 -0.882377
2004-11-24 09:15:31 51°23.011 3°15.09 17.092113 0.070125 0.415654 -0.916087
2004-11-24 09:15:34 51°23.021 3°15.102 17.103628 0.070125 0.415706 -0.916087
2004-11-24 09:15:40 51°23.041 3°15.124 17.108425 0.070125 0.415736 -0.916087
2004-11-24 09:15:45 51°23.058 3°15.139 17.093484 0.070125 0.415765 -0.882377
2004-11-24 09:15:50 51°23.076 3°15.153 17.091336 0.070125 0.415765 -0.882377
2004-11-24 09:16:02 51°23.12 3°15.182 17.087406 0.070125 0.415773 -0.882377
2004-11-24 09:16:07 51°23.139 3°15.193 17.082744 0.070125 0.415773 -0.882377
2004-11-24 09:16:12 51°23.157 3°15.204 17.090559 0.070125 0.415773 -0.882377
2004-11-24 09:16:17 51°23.176 3°15.215 17.099698 0.070125 0.415765 -0.882377